FW4143 Weather Reports


Display with metric or nautical units.
time (UTC)temp
F
wind
direction
speed
MPH
gust
MPH
rain 1hr
in
rain 24hr
in
rain mn
in
humidity
%
barometer
mb
20201030095405 48 184 3.0 8.0 0.00 0.00 0.00 78 1023.9
20201030095306 48 184 3.0 8.0 0.00 0.00 0.00 78 1023.9
20201030095209 48 184 3.0 8.0 0.00 0.00 0.00 78 1023.9
20201030095105 48 185 3.0 8.0 0.00 0.00 0.00 78 1023.9
20201030095009 48 184 3.0 8.0 0.00 0.00 0.00 78 1023.9
20201030094911 48 184 3.0 8.0 0.00 0.00 0.00 78 1024.0
20201030094804 48 181 3.0 8.0 0.00 0.00 0.00 78 1023.9
20201030094708 48 179 3.0 8.0 0.00 0.00 0.00 78 1023.9
20201030094605 48 178 3.0 8.0 0.00 0.00 0.00 78 1024.0
20201030094508 48 174 3.0 8.0 0.00 0.00 0.00 78 1023.9
20201030094403 48 171 3.0 8.0 0.00 0.00 0.00 78 1023.9
20201030094303 48 171 3.0 8.0 0.00 0.00 0.00 79 1023.9
20201030094203 48 170 3.0 8.0 0.00 0.00 0.00 78 1024.0
20201030094106 48 167 3.0 8.0 0.00 0.00 0.00 79 1024.0
20201030094018 48 166 3.0 8.0 0.00 0.00 0.00 79 1024.0
20201030093904 48 166 4.0 9.0 0.00 0.00 0.00 79 1024.0
20201030093805 48 166 4.0 9.0 0.00 0.00 0.00 79 1024.0
20201030093707 48 166 4.0 9.0 0.00 0.00 0.00 79 1024.0
20201030093603 48 167 4.0 9.0 0.00 0.00 0.00 79 1023.9
20201030093505 48 168 4.0 9.0 0.00 0.00 0.00 79 1023.9
20201030093404 48 169 4.0 9.0 0.00 0.00 0.00 79 1023.9
20201030093303 48 169 4.0 9.0 0.00 0.00 0.00 79 1023.9
20201030093206 48 169 4.0 9.0 0.00 0.00 0.00 79 1023.9
20201030093104 48 168 4.0 9.0 0.00 0.00 0.00 79 1023.9
20201030093021 48 168 4.0 9.0 0.00 0.00 0.00 79 1023.9
20201030092909 48 169 3.0 8.0 0.00 0.00 0.00 79 1023.9
20201030092804 48 168 3.0 8.0 0.00 0.00 0.00 79 1023.9
20201030092705 48 167 3.0 8.0 0.00 0.00 0.00 79 1024.0
20201030092604 48 166 3.0 7.0 0.00 0.00 0.00 79 1023.9
20201030092513 48 164 3.0 6.0 0.00 0.00 0.00 79 1023.9
20201030092404 48 162 3.0 6.0 0.00 0.00 0.00 79 1024.0
20201030092305 48 161 2.0 6.0 0.00 0.00 0.00 80 1024.0
20201030092206 48 161 2.0 6.0 0.00 0.00 0.00 80 1024.0
20201030092103 48 161 2.0 6.0 0.00 0.00 0.00 79 1023.9
20201030092025 48 160 2.0 6.0 0.00 0.00 0.00 79 1024.0
20201030091905 48 160 2.0 6.0 0.00 0.00 0.00 79 1023.9
20201030091805 48 160 2.0 6.0 0.00 0.00 0.00 79 1024.0
20201030091703 48 160 2.0 6.0 0.00 0.00 0.00 79 1024.0
20201030091604 48 159 2.0 6.0 0.00 0.00 0.00 79 1024.0
20201030091517 48 158 2.0 6.0 0.00 0.00 0.00 79 1024.0
20201030091404 48 158 2.0 6.0 0.00 0.00 0.00 79 1024.0
20201030091312 49 158 2.0 6.0 0.00 0.00 0.00 79 1024.0
20201030091204 49 156 2.0 6.0 0.00 0.00 0.00 79 1024.0
20201030091105 49 156 2.0 6.0 0.00 0.00 0.00 78 1024.0
20201030091008 49 157 1.0 5.0 0.00 0.00 0.00 78 1024.0
20201030090906 49 158 2.0 5.0 0.00 0.00 0.00 78 1024.1
20201030090804 49 159 2.0 6.0 0.00 0.00 0.00 78 1024.0
20201030090704 49 162 2.0 6.0 0.00 0.00 0.00 78 1024.0
20201030090606 49 163 2.0 6.0 0.00 0.00 0.00 78 1024.1
20201030090514 49 165 2.0 6.0 0.00 0.00 0.00 78 1024.0
20201030090404 49 167 2.0 12.0 0.00 0.00 0.00 78 1024.0
20201030090303 49 168 2.0 12.0 0.00 0.00 0.00 78 1024.0
20201030090205 49 168 2.0 12.0 0.00 0.00 0.00 78 1024.1
20201030090103 49 169 3.0 12.0 0.00 0.00 0.00 78 1024.1
20201030090006 49 169 3.0 12.0 0.00 0.00 0.00 78 1024.0
20201030085904 49 170 3.0 12.0 0.00 0.00 0.00 78 1024.0
20201030085803 49 171 3.0 12.0 0.00 0.00 0.00 78 1024.1
20201030085704 49 171 3.0 12.0 0.00 0.00 0.00 78 1024.0
20201030085605 49 171 3.0 12.0 0.00 0.00 0.00 78 1024.0
20201030085513 49 172 3.0 12.0 0.00 0.00 0.00 78 1024.0
20201030085403 49 171 3.0 7.0 0.00 0.00 0.00 78 1024.1
20201030085306 49 170 2.0 7.0 0.00 0.00 0.00 78 1024.1
20201030085203 49 170 2.0 7.0 0.00 0.00 0.00 78 1024.1
20201030085109 49 174 2.0 7.0 0.00 0.00 0.00 78 1024.1
20201030085026 49 175 2.0 6.0 0.00 0.00 0.00 78 1024.0
20201030084908 49 174 2.0 6.0 0.00 0.00 0.00 78 1024.1
20201030084807 49 175 2.0 6.0 0.00 0.00 0.00 78 1024.0
20201030084704 49 177 2.0 10.0 0.00 0.00 0.00 77 1024.0
20201030084605 49 178 2.0 10.0 0.00 0.00 0.00 77 1024.0
20201030084518 49 176 2.0 10.0 0.00 0.00 0.00 77 1024.0
20201030084403 50 176 2.0 10.0 0.00 0.00 0.00 77 1024.0
20201030084303 50 177 2.0 10.0 0.00 0.00 0.00 77 1024.0
20201030084204 50 178 2.0 10.0 0.00 0.00 0.00 77 1024.1
20201030084105 50 175 2.0 10.0 0.00 0.00 0.00 77 1024.0
20201030084004 50 175 2.0 10.0 0.00 0.00 0.00 77 1024.1
20201030083906 50 175 2.0 10.0 0.00 0.00 0.00 77 1024.0
20201030083803 50 174 2.0 10.0 0.00 0.00 0.00 77 1024.1
20201030083704 50 170 2.0 9.0 0.00 0.00 0.00 77 1024.1
20201030083611 50 171 2.0 9.0 0.00 0.00 0.00 77 1024.0
20201030083512 50 172 2.0 9.0 0.00 0.00 0.00 77 1024.1
20201030083404 50 172 2.0 9.0 0.00 0.00 0.00 77 1024.1
20201030083304 50 173 2.0 9.0 0.00 0.00 0.00 77 1024.1
20201030083204 50 173 2.0 9.0 0.00 0.00 0.00 77 1024.0
20201030083107 50 173 2.0 9.0 0.00 0.00 0.00 77 1024.1
20201030083031 50 173 3.0 9.0 0.00 0.00 0.00 76 1024.1
20201030082904 50 175 2.0 9.0 0.00 0.00 0.00 76 1024.1
20201030082804 50 175 2.0 8.0 0.00 0.00 0.00 76 1024.1
20201030082704 50 177 3.0 8.0 0.00 0.00 0.00 76 1024.1
20201030082603 50 174 3.0 8.0 0.00 0.00 0.00 76 1024.1
20201030082511 50 175 2.0 9.0 0.00 0.00 0.00 76 1024.1
20201030082403 50 175 2.0 9.0 0.00 0.00 0.00 76 1024.1
20201030082305 50 173 2.0 9.0 0.00 0.00 0.00 76 1024.1
20201030082208 50 172 2.0 9.0 0.00 0.00 0.00 76 1024.2
20201030082106 50 172 2.0 9.0 0.00 0.00 0.00 76 1024.2
20201030082007 50 171 2.0 9.0 0.00 0.00 0.00 76 1024.2
20201030081904 50 170 2.0 9.0 0.00 0.00 0.00 76 1024.2
20201030081804 50 168 2.0 9.0 0.00 0.00 0.00 76 1024.2
20201030081705 50 162 2.0 9.0 0.00 0.00 0.00 76 1024.2
20201030081607 50 162 2.0 9.0 0.00 0.00 0.00 76 1024.2
20201030081515 50 161 2.0 9.0 0.00 0.00 0.00 76 1024.2
20201030081403 50 161 2.0 9.0 0.00 0.00 0.00 76 1024.2
20201030081313 50 160 2.0 9.0 0.00 0.00 0.00 76 1024.3
20201030081205 50 159 2.0 9.0 0.00 0.00 0.00 76 1024.2
20201030081105 50 158 2.0 9.0 0.00 0.00 0.00 76 1024.3
20201030081006 50 157 2.0 9.0 0.00 0.00 0.00 76 1024.2
20201030080903 50 158 2.0 9.0 0.00 0.00 0.00 76 1024.3
20201030080804 50 158 2.0 9.0 0.00 0.00 0.00 76 1024.3
20201030080705 50 164 2.0 9.0 0.00 0.00 0.00 76 1024.3
20201030080604 50 164 2.0 9.0 0.00 0.00 0.00 76 1024.3
20201030080507 51 165 2.0 9.0 0.00 0.00 0.00 76 1024.3
20201030080413 51 165 2.0 10.0 0.00 0.00 0.00 76 1024.3
20201030080304 51 166 2.0 10.0 0.00 0.00 0.00 76 1024.3
20201030080217 51 167 2.0 10.0 0.00 0.00 0.00 76 1024.3
20201030080125 51 168 3.0 10.0 0.00 0.00 0.00 76 1024.2
20201030080023 51 168 3.0 10.0 0.00 0.00 0.00 76 1024.2
20201030075904 51 167 3.0 10.0 0.00 0.00 0.00 76 1024.2
20201030075803 51 168 3.0 10.0 0.00 0.00 0.00 76 1024.2
20201030075704 51 167 3.0 10.0 0.00 0.00 0.00 76 1024.3
20201030075604 51 167 3.0 10.0 0.00 0.00 0.00 75 1024.3
20201030075511 51 167 3.0 10.0 0.00 0.00 0.00 76 1024.3
20201030075403 51 168 3.0 9.0 0.00 0.00 0.00 76 1024.3
20201030075318 51 168 3.0 9.0 0.00 0.00 0.00 76 1024.3
20201030075206 51 167 3.0 9.0 0.00 0.00 0.00 76 1024.2
20201030075104 51 167 3.0 9.0 0.00 0.00 0.00 76 1024.3
20201030075008 51 166 3.0 9.0 0.00 0.00 0.00 76 1024.3
20201030074904 51 168 3.0 9.0 0.00 0.00 0.00 75 1024.3
20201030074804 51 167 3.0 9.0 0.00 0.00 0.00 75 1024.3
20201030074705 51 167 3.0 9.0 0.00 0.00 0.00 75 1024.3
20201030074606 51 167 3.0 10.0 0.00 0.00 0.00 75 1024.3
20201030074518 51 168 3.0 10.0 0.00 0.00 0.00 75 1024.3
20201030074406 51 168 4.0 10.0 0.00 0.00 0.00 75 1024.2
20201030074309 51 167 4.0 10.0 0.00 0.00 0.00 75 1024.2
20201030074206 51 167 4.0 10.0 0.00 0.00 0.00 75 1024.3
20201030074103 51 169 4.0 10.0 0.00 0.00 0.00 75 1024.2
20201030074008 51 170 3.0 10.0 0.00 0.00 0.00 75 1024.3
20201030073904 51 170 3.0 10.0 0.00 0.00 0.00 75 1024.2
20201030073804 51 170 4.0 10.0 0.00 0.00 0.00 75 1024.2
20201030073704 51 172 4.0 10.0 0.00 0.00 0.00 75 1024.2
20201030073611 51 173 4.0 12.0 0.00 0.00 0.00 75 1024.1
20201030073508 51 173 4.0 12.0 0.00 0.00 0.00 75 1024.1
20201030073411 51 174 4.0 12.0 0.00 0.00 0.00 75 1024.0
20201030073304 52 176 4.0 12.0 0.00 0.00 0.00 75 1024.0
20201030073204 52 178 4.0 12.0 0.00 0.00 0.00 75 1024.1
20201030073105 52 178 4.0 12.0 0.00 0.00 0.00 75 1024.1
20201030073019 52 178 4.0 12.0 0.00 0.00 0.00 75 1024.0
20201030072905 52 179 4.0 12.0 0.00 0.00 0.00 75 1024.0
20201030072804 52 180 4.0 12.0 0.00 0.00 0.00 75 1024.0
20201030072714 52 181 4.0 12.0 0.00 0.00 0.00 75 1024.0
20201030072605 52 182 4.0 12.0 0.00 0.00 0.00 75 1024.0
20201030072516 52 181 4.0 12.0 0.00 0.00 0.00 75 1023.9
20201030072404 52 181 5.0 12.0 0.00 0.00 0.00 74 1024.0
20201030072312 52 181 5.0 12.0 0.00 0.00 0.00 74 1024.0
20201030072204 52 181 4.0 12.0 0.00 0.00 0.00 74 1023.9
20201030072125 52 179 5.0 12.0 0.00 0.00 0.00 74 1023.9
20201030072012 52 179 5.0 12.0 0.00 0.00 0.00 74 1023.9
20201030071907 52 178 5.0 12.0 0.00 0.00 0.00 74 1023.9
20201030071822 52 178 5.0 12.0 0.00 0.00 0.00 74 1023.9
20201030071703 52 176 5.0 12.0 0.00 0.00 0.00 74 1023.9
20201030071608 52 174 5.0 11.0 0.00 0.00 0.00 74 1023.8
20201030071523 52 175 5.0 11.0 0.00 0.00 0.00 74 1023.8
20201030071403 52 176 5.0 11.0 0.00 0.00 0.00 74 1023.9
20201030071315 52 176 5.0 11.0 0.00 0.00 0.00 74 1023.8
20201030071211 52 174 5.0 11.0 0.00 0.00 0.00 74 1023.8
20201030071104 52 177 5.0 11.0 0.00 0.00 0.00 74 1023.8
20201030071019 52 178 5.0 14.0 0.00 0.00 0.00 74 1023.8
20201030070903 52 179 5.0 14.0 0.00 0.00 0.00 74 1023.8
20201030070803 52 178 5.0 14.0 0.00 0.00 0.00 74 1023.8
20201030070704 52 182 5.0 14.0 0.00 0.00 0.00 74 1023.8
20201030070611 52 184 5.0 14.0 0.00 0.00 0.00 74 1023.8
20201030070512 52 186 5.0 14.0 0.00 0.00 0.00 74 1023.8
20201030070405 52 186 5.0 14.0 0.00 0.00 0.00 74 1023.8
20201030070304 52 186 5.0 14.0 0.00 0.00 0.00 74 1023.8
20201030070204 52 188 4.0 14.0 0.00 0.00 0.00 74 1023.8
20201030070103 52 188 4.0 14.0 0.00 0.00 0.00 74 1023.8
20201030070035 52 188 4.0 13.0 0.00 0.00 0.00 74 1023.8
20201030065903 52 188 4.0 11.0 0.00 0.00 0.00 74 1023.8
20201030065805 52 188 4.0 11.0 0.00 0.00 0.00 74 1023.8
20201030065704 52 187 4.0 11.0 0.00 0.00 0.00 74 1023.8
20201030065604 52 186 4.0 10.0 0.00 0.00 0.00 74 1023.8
20201030065515 52 183 4.0 10.0 0.00 0.00 0.00 74 1023.8
20201030065408 52 183 4.0 10.0 0.00 0.00 0.00 74 1023.9
20201030065305 53 184 4.0 10.0 0.00 0.00 0.00 74 1023.9
20201030065205 53 184 4.0 10.0 0.00 0.00 0.00 74 1023.9
20201030065104 53 183 4.0 11.0 0.00 0.00 0.00 74 1023.9
20201030065006 53 182 4.0 11.0 0.00 0.00 0.00 74 1023.9
20201030064907 53 182 4.0 11.0 0.00 0.00 0.00 74 1023.8
20201030064805 53 182 4.0 11.0 0.00 0.00 0.00 74 1023.9
20201030064703 53 179 4.0 11.0 0.00 0.00 0.00 73 1023.8
20201030064606 53 178 4.0 11.0 0.00 0.00 0.00 74 1023.9
20201030064522 53 179 4.0 11.0 0.00 0.00 0.00 74 1023.9
20201030064418 53 178 4.0 11.0 0.00 0.00 0.00 73 1023.8
20201030064303 53 178 4.0 11.0 0.00 0.00 0.00 73 1023.8
20201030064209 53 176 4.0 11.0 0.00 0.00 0.00 73 1023.9
20201030064103 53 175 4.0 11.0 0.00 0.00 0.00 73 1023.9
20201030064021 53 176 4.0 11.0 0.00 0.00 0.00 73 1023.8
20201030063909 53 175 4.0 11.0 0.00 0.00 0.00 73 1023.8
20201030063805 53 175 4.0 11.0 0.00 0.00 0.00 73 1023.8
20201030063704 53 176 4.0 11.0 0.00 0.00 0.00 74 1023.8
20201030063609 53 177 4.0 11.0 0.00 0.00 0.00 74 1023.8
20201030063507 53 176 4.0 11.0 0.00 0.00 0.00 74 1023.8
20201030063405 53 177 4.0 11.0 0.00 0.00 0.00 74 1023.8
20201030063303 53 176 4.0 11.0 0.00 0.00 0.00 74 1023.8
20201030063204 53 177 4.0 11.0 0.00 0.00 0.00 74 1023.8
20201030063104 53 177 4.0 11.0 0.00 0.00 0.00 74 1023.8
20201030063019 53 176 4.0 11.0 0.00 0.00 0.00 74 1023.8
20201030062906 53 178 4.0 11.0 0.00 0.00 0.00 74 1023.8
20201030062806 53 177 4.0 11.0 0.00 0.00 0.00 74 1023.8
20201030062729 53 177 4.0 10.0 0.00 0.00 0.00 74 1023.8
20201030062603 53 176 4.0 10.0 0.00 0.00 0.00 74 1023.8
20201030062510 53 177 4.0 10.0 0.00 0.00 0.00 74 1023.8
20201030062403 53 176 4.0 10.0 0.00 0.00 0.00 74 1023.8
20201030062306 53 176 4.0 10.0 0.00 0.00 0.00 74 1023.8
20201030062204 53 178 4.0 10.0 0.00 0.00 0.00 74 1023.7
20201030062108 53 177 4.0 10.0 0.00 0.00 0.00 74 1023.8
20201030062020 53 177 4.0 10.0 0.00 0.00 0.00 74 1023.8
20201030061908 53 176 4.0 11.0 0.00 0.00 0.00 74 1023.8
20201030061805 53 177 4.0 11.0 0.00 0.00 0.00 74 1023.8
20201030061704 53 176 4.0 11.0 0.00 0.00 0.00 74 1023.7
20201030061604 53 176 4.0 11.0 0.00 0.00 0.00 74 1023.7
20201030061520 53 174 4.0 11.0 0.00 0.00 0.00 75 1023.8
20201030061403 53 174 4.0 11.0 0.00 0.00 0.00 75 1023.8
20201030061312 53 174 5.0 11.0 0.00 0.00 0.00 75 1023.8
20201030061204 53 172 4.0 11.0 0.00 0.00 0.00 75 1023.8
20201030061103 53 173 4.0 11.0 0.00 0.00 0.00 75 1023.8
20201030061013 53 173 5.0 11.0 0.00 0.00 0.00 75 1023.8
20201030060903 53 173 5.0 11.0 0.00 0.00 0.00 75 1023.8
20201030060807 53 171 5.0 11.0 0.00 0.00 0.00 75 1023.8
20201030060707 53 172 4.0 11.0 0.00 0.00 0.00 75 1023.8
20201030060603 53 172 4.0 11.0 0.00 0.00 0.00 76 1023.7
20201030060532 53 173 4.0 11.0 0.00 0.00 0.00 76 1023.8
20201030060409 53 172 4.0 11.0 0.00 0.00 0.00 76 1023.7
20201030060303 53 172 4.0 11.0 0.00 0.00 0.00 76 1023.7
20201030060206 53 172 4.0 10.0 0.00 0.00 0.00 76 1023.7
20201030060103 52 169 5.0 10.0 0.00 0.00 0.00 76 1023.8
20201030060028 52 168 5.0 11.0 0.00 0.00 0.00 77 1023.8
20201030055904 52 168 5.0 11.0 0.00 0.00 0.00 77 1023.8
20201030055803 52 169 5.0 11.0 0.00 0.00 0.00 77 1023.8
20201030055704 52 167 5.0 11.0 0.00 0.00 0.00 77 1023.7
20201030055603 52 167 5.0 11.0 0.00 0.00 0.00 77 1023.8
20201030055513 52 165 6.0 13.0 0.00 0.00 0.00 77 1023.7
20201030055403 52 165 6.0 13.0 0.00 0.00 0.00 77 1023.8
20201030055318 52 165 6.0 13.0 0.00 0.00 0.00 77 1023.8
20201030055204 52 163 5.0 13.0 0.00 0.00 0.00 77 1023.8
20201030055104 52 163 5.0 13.0 0.00 0.00 0.00 77 1023.8
20201030055017 52 161 5.0 13.0 0.00 0.00 0.00 78 1023.8
20201030054904 52 160 5.0 13.0 0.00 0.00 0.00 78 1023.9
20201030054806 52 158 5.0 13.0 0.00 0.00 0.00 78 1023.9
20201030054703 52 159 5.0 13.0 0.00 0.00 0.00 78 1023.9
20201030054609 52 158 5.0 13.0 0.00 0.00 0.00 78 1023.9
20201030054525 52 160 5.0 10.0 0.00 0.00 0.00 78 1023.9
20201030054403 52 159 5.0 10.0 0.00 0.00 0.00 78 1023.9
20201030054306 52 158 5.0 10.0 0.00 0.00 0.00 78 1023.9
20201030054205 52 159 5.0 10.0 0.00 0.00 0.00 78 1023.9
20201030054120 52 159 5.0 10.0 0.00 0.00 0.00 78 1023.9
20201030054026 52 160 5.0 10.0 0.00 0.00 0.00 78 1023.9
20201030053906 52 161 4.0 10.0 0.00 0.00 0.00 79 1023.9
20201030053806 52 161 4.0 10.0 0.00 0.00 0.00 79 1024.0
20201030053704 52 160 4.0 10.0 0.00 0.00 0.00 79 1023.9
20201030053604 52 158 4.0 10.0 0.00 0.00 0.00 79 1023.9
20201030053508 52 157 4.0 10.0 0.00 0.00 0.00 79 1023.9
20201030053403 52 158 4.0 10.0 0.00 0.00 0.00 79 1024.0
20201030053311 52 158 4.0 10.0 0.00 0.00 0.00 79 1023.9
20201030053206 52 157 4.0 10.0 0.00 0.00 0.00 79 1024.0
20201030053109 52 157 4.0 10.0 0.00 0.00 0.00 79 1024.0
20201030053022 52 157 4.0 10.0 0.00 0.00 0.00 79 1023.9
20201030052903 52 157 4.0 10.0 0.00 0.00 0.00 79 1023.9
20201030052803 52 156 4.0 10.0 0.00 0.00 0.00 79 1023.9
20201030052708 52 156 4.0 10.0 0.00 0.00 0.00 79 1024.0
20201030052612 52 157 5.0 9.0 0.00 0.00 0.00 79 1024.0
20201030052511 52 158 5.0 10.0 0.00 0.00 0.00 79 1024.0
20201030052404 52 157 5.0 11.0 0.00 0.00 0.00 80 1024.0
20201030052312 52 157 5.0 11.0 0.00 0.00 0.00 80 1024.0
20201030052222 52 157 5.0 11.0 0.00 0.00 0.00 80 1024.0
20201030052108 52 157 5.0 11.0 0.00 0.00 0.00 80 1023.9
20201030052007 52 157 5.0 11.0 0.00 0.00 0.00 80 1024.0
20201030051908 52 157 5.0 11.0 0.00 0.00 0.00 80 1024.0
20201030051806 52 156 5.0 11.0 0.00 0.00 0.00 80 1023.9
20201030051704 52 156 5.0 11.0 0.00 0.00 0.00 80 1023.9
20201030051603 52 156 5.0 11.0 0.00 0.00 0.00 81 1023.9
20201030051517 52 155 4.0 11.0 0.00 0.00 0.00 81 1023.8
20201030051403 52 155 4.0 9.0 0.00 0.00 0.00 81 1023.8
20201030051303 52 155 4.0 9.0 0.00 0.00 0.00 81 1023.9
20201030051205 51 154 4.0 9.0 0.00 0.00 0.00 81 1023.8
20201030051103 51 153 4.0 9.0 0.00 0.00 0.00 81 1023.8
20201030051010 51 152 3.0 9.0 0.00 0.00 0.00 82 1023.8
20201030050911 51 151 3.0 9.0 0.00 0.00 0.00 82 1023.9
20201030050808 51 151 3.0 9.0 0.00 0.00 0.00 82 1023.9
20201030050705 51 151 3.0 9.0 0.00 0.00 0.00 82 1023.9
20201030050607 51 150 2.0 9.0 0.00 0.00 0.00 82 1023.9
20201030050504 51 147 2.0 8.0 0.00 0.00 0.00 82 1023.9
20201030050403 51 148 2.0 8.0 0.00 0.00 0.00 83 1023.8
20201030050315 51 148 2.0 8.0 0.00 0.00 0.00 83 1023.8
20201030050204 50 148 2.0 8.0 0.00 0.00 0.00 83 1023.8
20201030050103 50 150 2.0 8.0 0.00 0.00 0.00 83 1023.8
20201030050024 50 151 2.0 8.0 0.00 0.00 0.00 83 1023.8
20201030045905 50 151 2.0 8.0 0.00 0.00 0.00 83 1023.9
20201030045804 50 152 2.0 8.0 0.00 0.00 0.00 83 1023.8
20201030045706 50 152 1.0 8.0 0.00 0.00 0.00 84 1023.9
20201030045603 50 154 1.0 8.0 0.00 0.00 0.00 84 1023.8
20201030045512 50 154 1.0 8.0 0.00 0.00 0.00 84 1023.9
20201030045403 50 154 1.0 8.0 0.00 0.00 0.00 84 1023.8
20201030045309 50 155 1.0 8.0 0.00 0.00 0.00 84 1023.9
20201030045208 50 152 1.0 7.0 0.00 0.00 0.00 84 1023.8
20201030045107 50 150 0.0 7.0 0.00 0.00 0.00 84 1023.8
20201030045026 50 150 0.0 4.0 0.00 0.00 0.00 84 1023.9
20201030044904 50 146 0.0 3.0 0.00 0.00 0.00 84 1023.9
20201030044808 50 144 0.0 3.0 0.00 0.00 0.00 84 1023.9
20201030044704 50 144 0.0 3.0 0.00 0.00 0.00 84 1023.9
20201030044618 50 143 0.0 2.0 0.00 0.00 0.00 84 1023.9
20201030044513 50 146 0.0 2.0 0.00 0.00 0.00 84 1023.9
20201030044408 50 150 0.0 2.0 0.00 0.00 0.00 84 1023.9
20201030044304 50 152 0.0 2.0 0.00 0.00 0.00 84 1023.9
20201030044210 50 152 0.0 2.0 0.00 0.00 0.00 84 1023.8
20201030044108 50 152 0.0 2.0 0.00 0.00 0.00 84 1023.8
20201030044010 50 152 0.0 2.0 0.00 0.00 0.00 84 1023.9
20201030043904 50 153 0.0 2.0 0.00 0.00 0.00 84 1023.9
20201030043808 50 154 0.0 2.0 0.00 0.00 0.00 84 1023.9
20201030043707 50 153 0.0 2.0 0.00 0.00 0.00 84 1023.9
20201030043605 50 155 0.0 2.0 0.00 0.00 0.00 84 1023.9
20201030043513 50 155 0.0 2.0 0.00 0.00 0.00 84 1023.9
20201030043404 50 147 0.0 2.0 0.00 0.00 0.00 84 1024.0
20201030043306 50 147 0.0 2.0 0.00 0.00 0.00 84 1024.0
20201030043204 50 148 0.0 2.0 0.00 0.00 0.00 84 1024.0
20201030043104 50 148 0.0 2.0 0.00 0.00 0.00 84 1023.9
20201030043010 50 148 0.0 2.0 0.00 0.00 0.00 84 1023.9
20201030042906 50 146 0.0 2.0 0.00 0.00 0.00 84 1023.9
20201030042806 50 145 0.0 1.0 0.00 0.00 0.00 84 1023.8
20201030042713 50 145 0.0 1.0 0.00 0.00 0.00 84 1023.9
20201030042604 50 137 0.0 1.0 0.00 0.00 0.00 84 1023.9
20201030042511 50 137 0.0 1.0 0.00 0.00 0.00 84 1023.8
20201030042409 50 145 0.0 1.0 0.00 0.00 0.00 84 1023.8
20201030042308 50 144 0.0 1.0 0.00 0.00 0.00 84 1023.9
20201030042206 50 143 0.0 1.0 0.00 0.00 0.00 84 1023.9
20201030042105 50 143 0.0 1.0 0.00 0.00 0.00 84 1023.9
20201030042009 50 143 0.0 1.0 0.00 0.00 0.00 84 1023.9
20201030041906 50 143 0.0 1.0 0.00 0.00 0.00 84 1023.9
20201030041804 50 143 0.0 1.0 0.00 0.00 0.00 84 1023.8
20201030041707 50 143 0.0 1.0 0.00 0.00 0.00 84 1023.8
20201030041603 50 143 0.0 1.0 0.00 0.00 0.00 84 1023.8
20201030041518 50 143 0.0 1.0 0.00 0.00 0.00 84 1023.8
20201030041404 50 143 0.0 1.0 0.00 0.00 0.00 84 1023.7
20201030041303 50 0 0.0 1.0 0.00 0.00 0.00 84 1023.8
20201030041204 50 0 0.0 1.0 0.00 0.00 0.00 84 1023.8
20201030041134 50 0 0.0 1.0 0.00 0.00 0.00 84 1023.8
20201030041019 50 0 0.0 1.0 0.00 0.00 0.00 83 1023.7
20201030040908 50 0 0.0 1.0 0.00 0.00 0.00 83 1023.7
20201030040803 50 0 0.0 1.0 0.00 0.00 0.00 83 1023.7
20201030040706 50 0 0.0 1.0 0.00 0.00 0.00 83 1023.7
20201030040606 50 0 0.0 1.0 0.00 0.00 0.00 83 1023.7
20201030040504 50 0 0.0 1.0 0.00 0.00 0.00 83 1023.7
20201030040407 50 0 0.0 1.0 0.00 0.00 0.00 83 1023.6
20201030040305 50 140 0.0 1.0 0.00 0.00 0.00 83 1023.6
20201030040204 50 140 0.0 1.0 0.00 0.00 0.00 83 1023.6
20201030040107 50 140 0.0 1.0 0.00 0.00 0.00 83 1023.6
20201030040006 50 140 0.0 1.0 0.00 0.00 0.00 83 1023.5
20201030035907 50 140 0.0 1.0 0.00 0.00 0.00 83 1023.5
20201030035805 50 140 0.0 1.0 0.00 0.00 0.00 83 1023.6
20201030035704 50 140 0.0 1.0 0.00 0.00 0.00 83 1023.5
20201030035607 50 140 0.0 1.0 0.00 0.00 0.00 83 1023.6
20201030035515 50 140 0.0 1.0 0.00 0.00 0.00 83 1023.5
20201030035404 50 142 0.0 1.0 0.00 0.00 0.00 83 1023.6
20201030035308 50 145 0.0 1.0 0.00 0.00 0.00 83 1023.5
20201030035212 50 145 0.0 1.0 0.00 0.00 0.00 82 1023.5
20201030035103 50 145 0.0 1.0 0.00 0.00 0.00 82 1023.5
20201030035007 50 145 0.0 1.0 0.00 0.00 0.00 82 1023.5
20201030034909 50 145 0.0 1.0 0.00 0.00 0.00 82 1023.5
20201030034806 50 145 0.0 1.0 0.00 0.00 0.00 82 1023.5
20201030034703 51 145 0.0 1.0 0.00 0.00 0.00 82 1023.4
20201030034604 51 144 0.0 1.0 0.00 0.00 0.00 82 1023.4
20201030034516 51 144 0.0 1.0 0.00 0.00 0.00 82 1023.4
20201030034405 51 144 0.0 1.0 0.00 0.00 0.00 82 1023.5
20201030034310 51 143 0.0 1.0 0.00 0.00 0.00 82 1023.5
20201030034203 51 139 0.0 1.0 0.00 0.00 0.00 82 1023.5
20201030034107 51 139 0.0 1.0 0.00 0.00 0.00 82 1023.5
20201030034010 51 139 0.0 1.0 0.00 0.00 0.00 82 1023.5
20201030033903 51 139 0.0 1.0 0.00 0.00 0.00 82 1023.5
20201030033803 51 139 0.0 1.0 0.00 0.00 0.00 82 1023.4
20201030033704 51 136 0.0 1.0 0.00 0.00 0.00 82 1023.4
20201030033603 51 134 0.0 1.0 0.00 0.00 0.00 81 1023.4
20201030033506 51 134 0.0 1.0 0.00 0.00 0.00 81 1023.4
20201030033404 51 134 0.0 1.0 0.00 0.00 0.00 81 1023.4
20201030033305 51 134 0.0 1.0 0.00 0.00 0.00 81 1023.5
20201030033205 51 0 0.0 1.0 0.00 0.00 0.00 81 1023.4
20201030033103 51 0 0.0 1.0 0.00 0.00 0.00 81 1023.4
20201030033009 51 0 0.0 1.0 0.00 0.00 0.00 81 1023.4
20201030032903 51 0 0.0 1.0 0.00 0.00 0.00 81 1023.4
20201030032807 51 0 0.0 1.0 0.00 0.00 0.00 80 1023.4
20201030032713 51 0 0.0 1.0 0.00 0.00 0.00 80 1023.4
20201030032604 51 0 0.0 1.0 0.00 0.00 0.00 80 1023.4
20201030032506 51 0 0.0 1.0 0.00 0.00 0.00 80 1023.4
20201030032409 52 0 0.0 1.0 0.00 0.00 0.00 80 1023.4
20201030032307 52 0 0.0 1.0 0.00 0.00 0.00 80 1023.4
20201030032206 52 0 0.0 1.0 0.00 0.00 0.00 80 1023.4
20201030032105 52 0 0.0 1.0 0.00 0.00 0.00 80 1023.3
20201030032015 52 0 0.0 1.0 0.00 0.00 0.00 80 1023.3
20201030031903 52 0 0.0 1.0 0.00 0.00 0.00 80 1023.3
20201030031806 52 0 0.0 1.0 0.00 0.00 0.00 80 1023.3
20201030031707 52 0 0.0 1.0 0.00 0.00 0.00 80 1023.3
20201030031610 52 0 0.0 1.0 0.00 0.00 0.00 80 1023.3
20201030031515 52 0 0.0 1.0 0.00 0.00 0.00 80 1023.3
20201030031405 52 0 0.0 1.0 0.00 0.00 0.00 79 1023.2
20201030031304 52 0 0.0 1.0 0.00 0.00 0.00 79 1023.2
20201030031215 52 0 0.0 1.0 0.00 0.00 0.00 79 1023.2
20201030031111 52 0 0.0 1.0 0.00 0.00 0.00 79 1023.2
20201030031019 52 0 0.0 1.0 0.00 0.00 0.00 79 1023.2
20201030030907 52 0 0.0 1.0 0.00 0.00 0.00 79 1023.2
20201030030806 52 0 0.0 1.0 0.00 0.00 0.00 79 1023.2
20201030030710 52 0 0.0 1.0 0.00 0.00 0.00 79 1023.2
20201030030615 52 0 0.0 1.0 0.00 0.00 0.00 79 1023.2
20201030030512 52 0 0.0 1.0 0.00 0.00 0.00 79 1023.2
20201030030404 52 0 0.0 1.0 0.00 0.00 0.00 79 1023.2
20201030030304 52 0 0.0 1.0 0.00 0.00 0.00 78 1023.1
20201030030211 52 0 0.0 1.0 0.00 0.00 0.00 78 1023.1
20201030030119 52 0 0.0 1.0 0.00 0.00 0.00 78 1023.1
20201030030011 52 0 0.0 1.0 0.00 0.00 0.00 78 1023.1
20201030025908 52 0 0.0 1.0 0.00 0.00 0.00 78 1023.1
20201030025806 52 0 0.0 1.0 0.00 0.00 0.00 78 1023.0
20201030025704 52 0 0.0 1.0 0.00 0.00 0.00 78 1023.0
20201030025611 52 0 0.0 1.0 0.00 0.00 0.00 78 1023.0
20201030025510 52 0 0.0 1.0 0.00 0.00 0.00 78 1023.0
20201030025406 53 0 0.0 1.0 0.00 0.00 0.00 78 1023.0
20201030025305 53 0 0.0 1.0 0.00 0.00 0.00 77 1023.0
20201030025209 53 0 0.0 1.0 0.00 0.00 0.00 77 1023.0
20201030025109 53 0 0.0 1.0 0.00 0.00 0.00 77 1023.0
20201030025012 53 0 0.0 1.0 0.00 0.00 0.00 77 1023.0
20201030024912 53 0 0.0 1.0 0.00 0.00 0.00 77 1023.0
20201030024808 53 0 0.0 1.0 0.00 0.00 0.00 77 1023.0
20201030024704 53 0 0.0 1.0 0.00 0.00 0.00 77 1022.9
20201030024603 53 0 0.0 1.0 0.00 0.00 0.00 77 1022.9
20201030024519 53 0 0.0 1.0 0.00 0.00 0.00 77 1023.0
20201030024403 53 0 0.0 1.0 0.00 0.00 0.00 77 1022.9
20201030024309 53 0 0.0 1.0 0.00 0.00 0.00 77 1022.9
20201030024206 53 0 0.0 1.0 0.00 0.00 0.00 77 1022.9
20201030024107 53 0 0.0 1.0 0.00 0.00 0.00 77 1022.9
20201030024010 53 0 0.0 1.0 0.00 0.00 0.00 77 1022.9
20201030023905 53 0 0.0 1.0 0.00 0.00 0.00 76 1022.8
20201030023804 53 0 0.0 1.0 0.00 0.00 0.00 76 1022.9
20201030023704 53 0 0.0 1.0 0.00 0.00 0.00 76 1022.9
20201030023610 53 164 0.0 1.0 0.00 0.00 0.00 76 1022.9
20201030023510 53 175 0.0 4.0 0.00 0.00 0.00 76 1022.9
20201030023403 53 175 0.0 4.0 0.00 0.00 0.00 76 1022.9
20201030023307 53 175 0.0 4.0 0.00 0.00 0.00 76 1022.9
20201030023206 53 175 0.0 4.0 0.00 0.00 0.00 76 1022.9
20201030023107 53 183 0.0 4.0 0.00 0.00 0.00 76 1022.9
20201030023025 54 183 0.0 4.0 0.00 0.00 0.00 76 1022.8
20201030022913 54 184 0.0 4.0 0.00 0.00 0.00 76 1022.8
20201030022804 54 184 0.0 4.0 0.00 0.00 0.00 76 1022.8
20201030022703 54 184 0.0 4.0 0.00 0.00 0.00 76 1022.8
20201030022606 54 185 0.0 4.0 0.00 0.00 0.00 75 1022.8
20201030022508 54 199 0.0 3.0 0.00 0.00 0.00 75 1022.9
20201030022403 54 199 0.0 3.0 0.00 0.00 0.00 75 1022.9
20201030022306 54 179 0.0 3.0 0.00 0.00 0.00 75 1022.9
20201030022206 54 179 0.0 3.0 0.00 0.00 0.00 75 1022.8
20201030022110 54 157 0.0 2.0 0.00 0.00 0.00 75 1022.9
20201030022006 54 157 0.0 2.0 0.00 0.00 0.00 75 1022.9
20201030021904 54 150 0.0 2.0 0.00 0.00 0.00 75 1022.8
20201030021815 54 150 0.0 2.0 0.00 0.00 0.00 75 1022.8
20201030021711 54 150 0.0 2.0 0.00 0.00 0.00 75 1022.8
20201030021610 54 150 0.0 2.0 0.00 0.00 0.00 75 1022.8
20201030021529 54 150 0.0 2.0 0.00 0.00 0.00 75 1022.7
20201030021405 54 150 0.0 2.0 0.00 0.00 0.00 75 1022.8
20201030021307 54 0 0.0 1.0 0.00 0.00 0.00 75 1022.8
20201030021205 54 0 0.0 1.0 0.00 0.00 0.00 75 1022.8
20201030021104 54 0 0.0 1.0 0.00 0.00 0.00 75 1022.8
20201030021004 54 0 0.0 1.0 0.00 0.00 0.00 75 1022.7
20201030020923 54 0 0.0 1.0 0.00 0.00 0.00 75 1022.7
20201030020806 54 0 0.0 1.0 0.00 0.00 0.00 75 1022.7
20201030020709 54 0 0.0 1.0 0.00 0.00 0.00 75 1022.7
20201030020608 54 0 0.0 1.0 0.00 0.00 0.00 75 1022.6
20201030020525 54 0 0.0 1.0 0.00 0.00 0.00 75 1022.6
20201030020407 54 0 0.0 1.0 0.00 0.00 0.00 75 1022.6
20201030020307 54 0 0.0 1.0 0.00 0.00 0.00 74 1022.7
20201030020205 54 0 0.0 1.0 0.00 0.00 0.00 74 1022.7
20201030020109 54 0 0.0 1.0 0.00 0.00 0.00 74 1022.7
20201030020031 54 0 0.0 1.0 0.00 0.00 0.00 74 1022.7
20201030015904 54 0 0.0 1.0 0.00 0.00 0.00 74 1022.6
20201030015804 54 0 0.0 1.0 0.00 0.00 0.00 74 1022.6
20201030015708 54 0 0.0 1.0 0.00 0.00 0.00 74 1022.6
20201030015615 54 0 0.0 1.0 0.00 0.00 0.00 74 1022.6
20201030015510 54 0 0.0 1.0 0.00 0.00 0.00 74 1022.6
20201030015404 54 0 0.0 1.0 0.00 0.00 0.00 74 1022.6
20201030015308 54 167 0.0 1.0 0.00 0.00 0.00 74 1022.7
20201030015203 54 167 0.0 1.0 0.00 0.00 0.00 74 1022.6
20201030015104 54 160 0.0 5.0 0.00 0.00 0.00 74 1022.6
20201030015015 54 159 0.0 5.0 0.00 0.00 0.00 74 1022.7
20201030014905 54 170 0.0 5.0 0.00 0.00 0.00 74 1022.7
20201030014814 54 183 0.0 5.0 0.00 0.00 0.00 74 1022.6
20201030014714 54 183 0.0 5.0 0.00 0.00 0.00 74 1022.6
20201030014611 54 185 0.0 5.0 0.00 0.00 0.00 74 1022.6
20201030014520 54 180 0.0 5.0 0.00 0.00 0.00 74 1022.6
20201030014406 54 179 0.0 5.0 0.00 0.00 0.00 74 1022.5
20201030014303 54 178 0.0 5.0 0.00 0.00 0.00 74 1022.5
20201030014207 54 179 1.0 5.0 0.00 0.00 0.00 74 1022.5
20201030014116 54 176 1.0 5.0 0.00 0.00 0.00 74 1022.4
20201030014005 54 175 1.0 5.0 0.00 0.00 0.00 74 1022.4
20201030013911 54 175 1.0 5.0 0.00 0.00 0.00 73 1022.4
20201030013805 54 172 1.0 5.0 0.00 0.00 0.00 73 1022.3
20201030013706 54 170 1.0 5.0 0.00 0.00 0.00 73 1022.4
20201030013607 54 169 1.0 5.0 0.00 0.00 0.00 73 1022.3
20201030013506 54 169 1.0 5.0 0.00 0.00 0.00 73 1022.3
20201030013407 55 167 0.0 5.0 0.00 0.00 0.00 73 1022.3
20201030013317 55 166 1.0 5.0 0.00 0.00 0.00 73 1022.3
20201030013206 55 165 0.0 5.0 0.00 0.00 0.00 73 1022.3
20201030013108 55 170 0.0 4.0 0.00 0.00 0.00 73 1022.4
20201030013020 55 170 0.0 4.0 0.00 0.00 0.00 73 1022.3
20201030012908 55 172 0.0 4.0 0.00 0.00 0.00 73 1022.3
20201030012803 55 172 0.0 4.0 0.00 0.00 0.00 73 1022.3
20201030012706 55 174 0.0 4.0 0.00 0.00 0.00 73 1022.3
20201030012605 55 179 0.0 4.0 0.00 0.00 0.00 73 1022.3
20201030012508 55 177 0.0 4.0 0.00 0.00 0.00 73 1022.3
20201030012407 55 178 0.0 4.0 0.00 0.00 0.00 73 1022.3
20201030012306 55 182 0.0 3.0 0.00 0.00 0.00 73 1022.3
20201030012203 55 174 0.0 4.0 0.00 0.00 0.00 73 1022.2
20201030012103 55 175 0.0 4.0 0.00 0.00 0.00 73 1022.2
20201030012034 55 174 0.0 4.0 0.00 0.00 0.00 72 1022.3
20201030011906 55 171 0.0 4.0 0.00 0.00 0.00 72 1022.2
20201030011803 55 170 0.0 4.0 0.00 0.00 0.00 72 1022.2
20201030011710 55 169 0.0 4.0 0.00 0.00 0.00 72 1022.1
20201030011603 55 168 0.0 4.0 0.00 0.00 0.00 72 1022.1
20201030011523 55 171 0.0 4.0 0.00 0.00 0.00 72 1022.2
20201030011406 55 170 0.0 4.0 0.00 0.00 0.00 72 1022.2
20201030011306 55 170 0.0 4.0 0.00 0.00 0.00 72 1022.1
20201030011203 55 174 0.0 4.0 0.00 0.00 0.00 72 1022.2
20201030011108 55 173 0.0 4.0 0.00 0.00 0.00 72 1022.2
20201030011011 55 179 0.0 4.0 0.00 0.00 0.00 72 1022.2
20201030010904 55 181 0.0 4.0 0.00 0.00 0.00 72 1022.2
20201030010807 55 180 0.0 4.0 0.00 0.00 0.00 72 1022.2
20201030010710 55 182 0.0 4.0 0.00 0.00 0.00 71 1022.1
20201030010606 55 186 0.0 4.0 0.00 0.00 0.00 71 1022.1
20201030010513 55 187 0.0 4.0 0.00 0.00 0.00 72 1022.1
20201030010404 55 195 0.0 2.0 0.00 0.00 0.00 71 1022.1
20201030010303 55 195 0.0 2.0 0.00 0.00 0.00 71 1022.1
20201030010219 55 190 0.0 2.0 0.00 0.00 0.00 71 1022.1
20201030010105 55 191 0.0 2.0 0.00 0.00 0.00 71 1022.1
20201030010022 55 185 0.0 2.0 0.00 0.00 0.00 71 1022.1
20201030005906 55 184 0.0 2.0 0.00 0.00 0.00 71 1022.1
20201030005805 55 182 0.0 2.0 0.00 0.00 0.00 71 1022.1
20201030005706 55 182 0.0 2.0 0.00 0.00 0.00 71 1022.0
20201030005610 55 162 0.0 2.0 0.00 0.00 0.00 71 1022.0
20201030005512 55 160 0.0 2.0 0.00 0.00 0.00 71 1022.0
20201030005406 55 160 0.0 2.0 0.00 0.00 0.00 71 1022.0
20201030005316 56 160 0.0 2.0 0.00 0.00 0.00 71 1022.0
20201030005203 56 168 0.0 2.0 0.00 0.00 0.00 70 1022.0
20201030005104 56 168 0.0 2.0 0.00 0.00 0.00 70 1022.0
20201030005018 56 163 0.0 2.0 0.00 0.00 0.00 70 1022.0
20201030004905 56 163 0.0 2.0 0.00 0.00 0.00 70 1022.0
20201030004805 56 163 0.0 1.0 0.00 0.00 0.00 70 1021.9
20201030004710 56 163 0.0 1.0 0.00 0.00 0.00 70 1021.9
20201030004607 56 177 0.0 2.0 0.00 0.00 0.00 70 1021.9
20201030004510 56 177 0.0 2.0 0.00 0.00 0.00 70 1021.9
20201030004407 56 177 0.0 2.0 0.00 0.00 0.00 70 1021.9
20201030004315 56 177 0.0 2.0 0.00 0.00 0.00 70 1021.9
20201030004205 56 177 0.0 2.0 0.00 0.00 0.00 69 1021.8
20201030004108 56 175 0.0 2.0 0.00 0.00 0.00 69 1021.9
20201030004011 56 175 0.0 2.0 0.00 0.00 0.00 69 1021.8
20201030003906 56 172 0.0 2.0 0.00 0.00 0.00 69 1021.8
20201030003804 56 172 0.0 2.0 0.00 0.00 0.00 69 1021.9
20201030003707 56 172 0.0 2.0 0.00 0.00 0.00 69 1021.8
20201030003616 56 164 0.0 2.0 0.00 0.00 0.00 69 1021.8
20201030003518 56 163 0.0 2.0 0.00 0.00 0.00 68 1021.7
20201030003403 56 160 0.0 2.0 0.00 0.00 0.00 68 1021.7
20201030003310 56 154 0.0 4.0 0.00 0.00 0.00 68 1021.7
20201030003206 56 160 1.0 4.0 0.00 0.00 0.00 68 1021.7
20201030003104 56 162 1.0 5.0 0.00 0.00 0.00 68 1021.8
20201030003020 57 163 1.0 5.0 0.00 0.00 0.00 68 1021.8
20201030002903 57 165 1.0 5.0 0.00 0.00 0.00 68 1021.7
20201030002810 57 165 1.0 5.0 0.00 0.00 0.00 68 1021.7
20201030002704 57 165 1.0 5.0 0.00 0.00 0.00 67 1021.7
20201030002604 57 165 1.0 5.0 0.00 0.00 0.00 67 1021.7
20201030002514 57 165 1.0 5.0 0.00 0.00 0.00 67 1021.6
20201030002403 57 167 1.0 5.0 0.00 0.00 0.00 67 1021.6
20201030002306 57 170 1.0 5.0 0.00 0.00 0.00 67 1021.6
20201030002203 57 174 1.0 5.0 0.00 0.00 0.00 67 1021.5
20201030002109 57 181 1.0 5.0 0.00 0.00 0.00 67 1021.6
20201030002009 57 184 1.0 5.0 0.00 0.00 0.00 67 1021.6
20201030001903 57 187 0.0 5.0 0.00 0.00 0.00 67 1021.6
20201030001803 57 188 0.0 5.0 0.00 0.00 0.00 67 1021.6
20201030001715 57 191 0.0 5.0 0.00 0.00 0.00 67 1021.5
20201030001616 57 190 0.0 5.0 0.00 0.00 0.00 67 1021.5
20201030001519 57 186 0.0 5.0 0.00 0.00 0.00 66 1021.5
20201030001411 57 183 0.0 5.0 0.00 0.00 0.00 66 1021.5
20201030001312 57 182 0.0 5.0 0.00 0.00 0.00 66 1021.5
20201030001205 57 173 0.0 5.0 0.00 0.00 0.00 66 1021.5
20201030001105 57 167 0.0 5.0 0.00 0.00 0.00 66 1021.4
20201030001006 57 163 0.0 5.0 0.00 0.00 0.00 66 1021.4
20201030000905 58 173 1.0 5.0 0.00 0.00 0.00 66 1021.4
20201030000804 58 172 1.0 5.0 0.00 0.00 0.00 66 1021.3
20201030000708 58 172 1.0 5.0 0.00 0.00 0.00 65 1021.4
20201030000604 58 172 1.0 5.0 0.00 0.00 0.00 65 1021.4
20201030000525 58 173 1.0 5.0 0.00 0.00 0.00 65 1021.4
20201030000412 58 174 1.0 5.0 0.00 0.00 0.00 65 1021.4
20201030000307 58 174 1.0 5.0 0.00 0.00 0.00 65 1021.4
20201030000207 58 176 1.0 5.0 0.00 0.00 0.00 65 1021.4
20201030000107 58 182 1.0 5.0 0.00 0.00 0.00 65 1021.3
20201030000008 58 183 1.0 5.0 0.00 0.00 0.00 65 1021.4
20201029235903 58 178 1.0 5.0 0.00 0.00 0.00 65 1021.4
20201029235806 58 174 1.0 7.0 0.00 0.00 0.00 65 1021.4
20201029235704 58 174 1.0 7.0 0.00 0.00 0.00 65 1021.4
20201029235604 58 174 1.0 7.0 0.00 0.00 0.00 64 1021.3
20201029235511 58 173 1.0 7.0 0.00 0.00 0.00 64 1021.3
20201029235406 58 173 1.0 7.0 0.00 0.00 0.00 64 1021.3
20201029235308 58 173 2.0 7.0 0.00 0.00 0.00 64 1021.3
20201029235204 58 175 2.0 7.0 0.00 0.00 0.00 64 1021.3
20201029235103 58 175 2.0 10.0 0.00 0.00 0.00 64 1021.3
20201029235007 58 173 2.0 10.0 0.00 0.00 0.00 64 1021.4
20201029234903 58 173 3.0 10.0 0.00 0.00 0.00 63 1021.4
20201029234807 58 173 3.0 10.0 0.00 0.00 0.00 63 1021.3
20201029234706 59 172 3.0 10.0 0.00 0.00 0.00 63 1021.3
20201029234606 59 172 3.0 10.0 0.00 0.00 0.00 63 1021.3
20201029234511 59 170 4.0 10.0 0.00 0.00 0.00 63 1021.3
20201029234404 59 170 4.0 10.0 0.00 0.00 0.00 63 1021.3
20201029234303 59 170 4.0 10.0 0.00 0.00 0.00 63 1021.3
20201029234205 59 171 4.0 10.0 0.00 0.00 0.00 62 1021.3
20201029234108 59 170 4.0 9.0 0.00 0.00 0.00 62 1021.2
20201029234010 59 172 4.0 8.0 0.00 0.00 0.00 62 1021.2
20201029233908 59 170 4.0 8.0 0.00 0.00 0.00 62 1021.3
20201029233805 59 171 4.0 8.0 0.00 0.00 0.00 62 1021.2
20201029233705 59 172 4.0 9.0 0.00 0.00 0.00 62 1021.2
20201029233607 59 173 4.0 9.0 0.00 0.00 0.00 62 1021.2
20201029233503 59 174 4.0 12.0 0.00 0.00 0.00 62 1021.3
20201029233403 59 172 4.0 12.0 0.00 0.00 0.00 61 1021.2
20201029233306 59 172 4.0 12.0 0.00 0.00 0.00 61 1021.2
20201029233208 59 169 4.0 12.0 0.00 0.00 0.00 61 1021.2
20201029233107 60 169 5.0 12.0 0.00 0.00 0.00 61 1021.2
20201029233023 60 170 5.0 12.0 0.00 0.00 0.00 61 1021.2
20201029232904 60 171 5.0 12.0 0.00 0.00 0.00 61 1021.2
20201029232811 60 170 5.0 12.0 0.00 0.00 0.00 61 1021.2
20201029232705 60 169 5.0 12.0 0.00 0.00 0.00 61 1021.2
20201029232605 60 169 5.0 12.0 0.00 0.00 0.00 60 1021.2
20201029232509 60 168 5.0 14.0 0.00 0.00 0.00 60 1021.2
20201029232403 60 168 5.0 14.0 0.00 0.00 0.00 60 1021.2
20201029232308 60 170 5.0 14.0 0.00 0.00 0.00 60 1021.3
20201029232205 60 174 5.0 14.0 0.00 0.00 0.00 60 1021.2
20201029232105 60 174 6.0 14.0 0.00 0.00 0.00 60 1021.2
20201029232034 60 173 5.0 14.0 0.00 0.00 0.00 60 1021.3
20201029231908 60 173 5.0 14.0 0.00 0.00 0.00 60 1021.2
20201029231808 60 173 6.0 14.0 0.00 0.00 0.00 60 1021.2
20201029231704 60 173 6.0 14.0 0.00 0.00 0.00 61 1021.2
20201029231605 60 173 6.0 14.0 0.00 0.00 0.00 60 1021.2
20201029231523 60 173 6.0 13.0 0.00 0.00 0.00 60 1021.2
20201029231404 60 175 6.0 12.0 0.00 0.00 0.00 60 1021.2
20201029231305 60 176 6.0 12.0 0.00 0.00 0.00 60 1021.2
20201029231204 60 174 6.0 12.0 0.00 0.00 0.00 60 1021.2
20201029231105 60 171 6.0 13.0 0.00 0.00 0.00 60 1021.2
20201029231017 60 169 6.0 13.0 0.00 0.00 0.00 60 1021.2
20201029230908 60 169 6.0 13.0 0.00 0.00 0.00 60 1021.2
20201029230806 60 171 6.0 13.0 0.00 0.00 0.00 60 1021.2
20201029230707 60 171 6.0 13.0 0.00 0.00 0.00 60 1021.2
20201029230605 60 171 6.0 13.0 0.00 0.00 0.00 60 1021.2
20201029230506 60 170 6.0 13.0 0.00 0.00 0.00 60 1021.2
20201029230405 60 168 6.0 13.0 0.00 0.00 0.00 60 1021.2
20201029230304 60 166 6.0 13.0 0.00 0.00 0.00 60 1021.2
20201029230216 60 169 6.0 13.0 0.00 0.00 0.00 60 1021.2
20201029230111 60 171 6.0 13.0 0.00 0.00 0.00 60 1021.1
20201029230011 60 173 5.0 13.0 0.00 0.00 0.00 60 1021.1
20201029225906 60 171 6.0 13.0 0.00 0.00 0.00 59 1021.2
20201029225804 60 167 5.0 14.0 0.00 0.00 0.00 59 1021.2
20201029225705 60 167 5.0 14.0 0.00 0.00 0.00 60 1021.2
20201029225618 60 167 5.0 14.0 0.00 0.00 0.00 60 1021.2
20201029225516 60 167 4.0 14.0 0.00 0.00 0.00 60 1021.1
20201029225403 60 167 4.0 14.0 0.00 0.00 0.00 59 1021.1
20201029225316 60 164 5.0 14.0 0.00 0.00 0.00 59 1021.1
20201029225203 60 160 5.0 14.0 0.00 0.00 0.00 60 1021.1
20201029225103 60 160 5.0 14.0 0.00 0.00 0.00 60 1021.1
20201029225007 60 159 5.0 14.0 0.00 0.00 0.00 59 1021.1
20201029224907 60 162 5.0 14.0 0.00 0.00 0.00 60 1021.0
20201029224812 60 162 5.0 15.0 0.00 0.00 0.00 60 1021.1
20201029224705 60 163 6.0 15.0 0.00 0.00 0.00 60 1021.1
20201029224605 60 163 6.0 15.0 0.00 0.00 0.00 60 1021.1
20201029224525 60 165 6.0 15.0 0.00 0.00 0.00 60 1021.1
20201029224406 60 166 6.0 15.0 0.00 0.00 0.00 59 1021.0
20201029224304 60 167 6.0 15.0 0.00 0.00 0.00 59 1021.1
20201029224203 60 166 6.0 15.0 0.00 0.00 0.00 60 1021.1
20201029224118 60 163 7.0 15.0 0.00 0.00 0.00 59 1021.0
20201029224009 60 163 7.0 15.0 0.00 0.00 0.00 60 1021.1
20201029223906 60 164 7.0 15.0 0.00 0.00 0.00 59 1021.1
20201029223803 60 163 7.0 14.0 0.00 0.00 0.00 59 1021.1
20201029223704 60 161 7.0 14.0 0.00 0.00 0.00 59 1021.1
20201029223612 60 160 7.0 14.0 0.00 0.00 0.00 60 1021.1
20201029223510 60 158 6.0 14.0 0.00 0.00 0.00 60 1021.1
20201029223406 60 157 6.0 14.0 0.00 0.00 0.00 59 1021.1
20201029223314 60 158 6.0 14.0 0.00 0.00 0.00 59 1021.1
20201029223220 60 158 6.0 14.0 0.00 0.00 0.00 59 1021.1
20201029223112 60 159 5.0 11.0 0.00 0.00 0.00 59 1021.1
20201029223007 60 161 5.0 11.0 0.00 0.00 0.00 59 1021.2
20201029222911 60 163 5.0 11.0 0.00 0.00 0.00 59 1021.2
20201029222803 60 166 6.0 13.0 0.00 0.00 0.00 59 1021.2
20201029222711 60 169 6.0 13.0 0.00 0.00 0.00 60 1021.2
20201029222610 60 173 6.0 13.0 0.00 0.00 0.00 60 1021.1
20201029222529 60 177 7.0 15.0 0.00 0.00 0.00 60 1021.1
20201029222403 60 177 7.0 15.0 0.00 0.00 0.00 60 1021.2
20201029222324 60 177 7.0 15.0 0.00 0.00 0.00 60 1021.2
20201029222205 60 177 7.0 15.0 0.00 0.00 0.00 60 1021.2
20201029222104 60 177 8.0 15.0 0.00 0.00 0.00 59 1021.2
20201029222027 60 176 8.0 15.0 0.00 0.00 0.00 59 1021.2
20201029221904 60 174 8.0 15.0 0.00 0.00 0.00 59 1021.2
20201029221804 60 174 7.0 15.0 0.00 0.00 0.00 59 1021.2
20201029221705 60 173 7.0 15.0 0.00 0.00 0.00 59 1021.2
20201029221605 60 173 8.0 17.0 0.00 0.00 0.00 59 1021.2
20201029221512 60 171 8.0 17.0 0.00 0.00 0.00 59 1021.2
20201029221404 60 173 8.0 17.0 0.00 0.00 0.00 60 1021.2
20201029221304 60 175 8.0 17.0 0.00 0.00 0.00 59 1021.1
20201029221205 60 176 9.0 17.0 0.00 0.00 0.00 59 1021.1
20201029221109 60 178 9.0 17.0 0.00 0.00 0.00 59 1021.1
20201029221010 60 179 9.0 17.0 0.00 0.00 0.00 59 1021.1
20201029220908 60 179 9.0 19.0 0.00 0.00 0.00 59 1021.1
20201029220808 60 179 9.0 19.0 0.00 0.00 0.00 59 1021.1
20201029220705 60 179 9.0 19.0 0.00 0.00 0.00 59 1021.1
20201029220617 60 179 9.0 19.0 0.00 0.00 0.00 59 1021.1
20201029220510 60 180 9.0 19.0 0.00 0.00 0.00 59 1021.1
20201029220405 60 180 8.0 19.0 0.00 0.00 0.00 59 1021.1
20201029220315 60 180 8.0 19.0 0.00 0.00 0.00 58 1021.1
20201029220206 60 181 8.0 19.0 0.00 0.00 0.00 59 1021.0
20201029220113 60 179 8.0 19.0 0.00 0.00 0.00 59 1021.1
20201029220019 60 180 8.0 19.0 0.00 0.00 0.00 59 1021.0
20201029215912 60 183 8.0 20.0 0.00 0.00 0.00 58 1021.0
20201029215803 60 184 8.0 20.0 0.00 0.00 0.00 58 1021.0
20201029215706 60 187 7.0 20.0 0.00 0.00 0.00 59 1021.1
20201029215614 60 185 7.0 20.0 0.00 0.00 0.00 59 1020.9
20201029215525 60 183 7.0 20.0 0.00 0.00 0.00 58 1020.9
20201029215409 60 181 8.0 20.0 0.00 0.00 0.00 59 1020.9
20201029215316 60 178 8.0 20.0 0.00 0.00 0.00 59 1020.9
20201029215204 60 179 9.0 20.0 0.00 0.00 0.00 59 1020.9
20201029215104 60 178 9.0 20.0 0.00 0.00 0.00 58 1020.9
20201029215011 60 180 9.0 20.0 0.00 0.00 0.00 58 1020.8
20201029214907 60 177 9.0 20.0 0.00 0.00 0.00 59 1020.9
20201029214807 60 176 9.0 20.0 0.00 0.00 0.00 59 1020.8
20201029214709 60 177 10.0 20.0 0.00 0.00 0.00 58 1020.8
20201029214604 60 177 10.0 20.0 0.00 0.00 0.00 58 1020.9
20201029214522 60 179 10.0 20.0 0.00 0.00 0.00 58 1020.8
20201029214408 60 181 10.0 20.0 0.00 0.00 0.00 58 1020.8
20201029214306 60 181 10.0 20.0 0.00 0.00 0.00 58 1020.8
20201029214205 60 181 9.0 20.0 0.00 0.00 0.00 58 1020.7
20201029214114 60 182 9.0 20.0 0.00 0.00 0.00 58 1020.8
20201029214008 60 181 10.0 20.0 0.00 0.00 0.00 58 1020.8
20201029213905 60 180 9.0 19.0 0.00 0.00 0.00 58 1020.7
20201029213812 60 179 10.0 19.0 0.00 0.00 0.00 58 1020.7
20201029213714 60 178 9.0 19.0 0.00 0.00 0.00 58 1020.9
20201029213603 60 179 10.0 19.0 0.00 0.00 0.00 58 1020.7
20201029213514 60 176 10.0 20.0 0.00 0.00 0.00 58 1020.8
20201029213406 60 175 10.0 20.0 0.00 0.00 0.00 58 1020.7
20201029213305 60 174 10.0 20.0 0.00 0.00 0.00 58 1020.7
20201029213206 60 173 10.0 20.0 0.00 0.00 0.00 58 1020.7
20201029213105 60 173 10.0 20.0 0.00 0.00 0.00 58 1020.7
20201029213020 60 172 10.0 20.0 0.00 0.00 0.00 58 1020.7
20201029212911 60 172 10.0 20.0 0.00 0.00 0.00 58 1020.6
20201029212807 60 172 10.0 20.0 0.00 0.00 0.00 58 1020.7
20201029212704 60 171 10.0 20.0 0.00 0.00 0.00 57 1020.7
20201029212603 60 170 10.0 20.0 0.00 0.00 0.00 57 1020.6
20201029212535 60 169 10.0 19.0 0.00 0.00 0.00 57 1020.7
20201029212404 60 168 9.0 19.0 0.00 0.00 0.00 57 1020.7
20201029212318 60 171 9.0 19.0 0.00 0.00 0.00 57 1020.7
20201029212207 60 171 9.0 19.0 0.00 0.00 0.00 57 1020.6
20201029212106 60 169 9.0 19.0 0.00 0.00 0.00 57 1020.6
20201029212021 60 170 9.0 19.0 0.00 0.00 0.00 57 1020.6
20201029211921 60 172 9.0 16.0 0.00 0.00 0.00 57 1020.5
20201029211808 60 172 9.0 16.0 0.00 0.00 0.00 57 1020.6
20201029211711 60 173 9.0 16.0 0.00 0.00 0.00 58 1020.5
20201029211605 60 174 9.0 19.0 0.00 0.00 0.00 58 1020.4
20201029211524 60 175 9.0 19.0 0.00 0.00 0.00 57 1020.5
20201029211406 60 176 9.0 19.0 0.00 0.00 0.00 58 1020.5
20201029211306 60 175 9.0 19.0 0.00 0.00 0.00 57 1020.5
20201029211205 60 174 9.0 19.0 0.00 0.00 0.00 58 1020.5
20201029211103 60 174 9.0 19.0 0.00 0.00 0.00 58 1020.6
20201029211025 60 172 8.0 19.0 0.00 0.00 0.00 58 1020.5
20201029210906 60 168 8.0 19.0 0.00 0.00 0.00 58 1020.5
20201029210811 60 165 8.0 19.0 0.00 0.00 0.00 58 1020.5
20201029210729 60 165 8.0 19.0 0.00 0.00 0.00 58 1020.5
20201029210622 60 167 8.0 17.0 0.00 0.00 0.00 58 1020.6
20201029210514 60 166 8.0 17.0 0.00 0.00 0.00 57 1020.6
20201029210411 60 165 8.0 17.0 0.00 0.00 0.00 58 1020.5
20201029210329 60 161 7.0 16.0 0.00 0.00 0.00 58 1020.6
20201029210258 60 164 8.0 20.0 0.00 0.00 0.00 58 1020.6
20201029210247 60 163 7.0 20.0 0.00 0.00 0.00 58 1020.6
20201029210130 60 162 7.0 20.0 0.00 0.00 0.00 58 1020.5
20201029205916 60 161 7.0 20.0 0.00 0.00 0.00 59 1020.5
20201029205807 60 161 7.0 20.0 0.00 0.00 0.00 58 1020.5
20201029205706 60 159 7.0 20.0 0.00 0.00 0.00 58 1020.5
20201029205623 60 155 8.0 20.0 0.00 0.00 0.00 58 1020.5
20201029205526 60 151 7.0 20.0 0.00 0.00 0.00 59 1020.5
20201029205406 60 153 8.0 20.0 0.00 0.00 0.00 59 1020.4
20201029205324 60 154 8.0 20.0 0.00 0.00 0.00 58 1020.5
20201029205212 60 152 8.0 19.0 0.00 0.00 0.00 59 1020.5
20201029205106 60 156 9.0 19.0 0.00 0.00 0.00 59 1020.4
20201029205005 60 159 9.0 22.0 0.00 0.00 0.00 59 1020.5
20201029204906 59 159 9.0 22.0 0.00 0.00 0.00 59 1020.5
20201029204808 59 161 9.0 22.0 0.00 0.00 0.00 59 1020.5
20201029204708 59 163 9.0 22.0 0.00 0.00 0.00 58 1020.5
20201029204616 59 164 9.0 22.0 0.00 0.00 0.00 58 1020.5
20201029204529 60 165 8.0 22.0 0.00 0.00 0.00 59 1020.4
20201029204411 60 163 8.0 22.0 0.00 0.00 0.00 58 1020.4
20201029204307 60 162 8.0 22.0 0.00 0.00 0.00 58 1020.5
20201029204225 60 161 8.0 22.0 0.00 0.00 0.00 58 1020.5
20201029204106 60 158 7.0 22.0 0.00 0.00 0.00 58 1020.6
20201029204022 60 152 7.0 16.0 0.00 0.00 0.00 59 1020.4
20201029203909 60 152 7.0 16.0 0.00 0.00 0.00 58 1020.4
20201029203810 60 149 7.0 16.0 0.00 0.00 0.00 59 1020.4
20201029203723 60 148 8.0 16.0 0.00 0.00 0.00 59 1020.4
20201029203605 59 147 8.0 16.0 0.00 0.00 0.00 59 1020.3
20201029203524 59 147 8.0 16.0 0.00 0.00 0.00 59 1020.4
20201029203404 59 146 7.0 16.0 0.00 0.00 0.00 59 1020.3
20201029203308 59 149 8.0 16.0 0.00 0.00 0.00 58 1020.4
20201029203207 59 152 8.0 16.0 0.00 0.00 0.00 59 1020.4
20201029203122 59 156 8.0 16.0 0.00 0.00 0.00 59 1020.3
20201029203028 59 158 8.0 16.0 0.00 0.00 0.00 59 1020.4
20201029202906 59 160 8.0 16.0 0.00 0.00 0.00 58 1020.4
20201029202808 59 160 7.0 16.0 0.00 0.00 0.00 58 1020.4
20201029202706 59 160 7.0 16.0 0.00 0.00 0.00 58 1020.4
20201029202605 59 161 7.0 16.0 0.00 0.00 0.00 58 1020.4
20201029202510 59 162 8.0 17.0 0.00 0.00 0.00 58 1020.3
20201029202409 59 162 8.0 17.0 0.00 0.00 0.00 59 1020.4
20201029202307 59 159 8.0 17.0 0.00 0.00 0.00 59 1020.5
20201029202208 59 157 8.0 17.0 0.00 0.00 0.00 58 1020.4
20201029202108 59 152 8.0 17.0 0.00 0.00 0.00 59 1020.4
20201029202025 59 151 8.0 17.0 0.00 0.00 0.00 60 1020.4
20201029201908 59 152 8.0 17.0 0.00 0.00 0.00 60 1020.4
20201029201806 59 151 8.0 17.0 0.00 0.00 0.00 59 1020.3
20201029201716 59 155 8.0 17.0 0.00 0.00 0.00 59 1020.3
20201029201612 59 156 8.0 17.0 0.00 0.00 0.00 59 1020.3
20201029201517 59 157 8.0 16.0 0.00 0.00 0.00 59 1020.3
20201029201407 59 160 7.0 16.0 0.00 0.00 0.00 59 1020.3
20201029201305 59 162 7.0 16.0 0.00 0.00 0.00 59 1020.3
20201029201208 59 167 7.0 18.0 0.00 0.00 0.00 59 1020.3
20201029201121 59 168 7.0 18.0 0.00 0.00 0.00 59 1020.4
20201029201008 59 167 7.0 18.0 0.00 0.00 0.00 59 1020.3
20201029200909 59 164 7.0 21.0 0.00 0.00 0.00 60 1020.4
20201029200805 59 166 7.0 21.0 0.00 0.00 0.00 59 1020.4
20201029200707 59 163 7.0 21.0 0.00 0.00 0.00 60 1020.4
20201029200606 59 161 7.0 21.0 0.00 0.00 0.00 60 1020.3
20201029200509 58 160 7.0 21.0 0.00 0.00 0.00 60 1020.4
20201029200405 58 159 7.0 21.0 0.00 0.00 0.00 60 1020.4
20201029200306 58 158 7.0 21.0 0.00 0.00 0.00 60 1020.4
20201029200210 58 154 7.0 21.0 0.00 0.00 0.00 60 1020.4
20201029200111 58 154 8.0 21.0 0.00 0.00 0.00 59 1020.3
20201029200032 58 156 8.0 21.0 0.00 0.00 0.00 60 1020.3
20201029195906 58 162 8.0 22.0 0.00 0.00 0.00 61 1020.4
20201029195812 58 163 8.0 22.0 0.00 0.00 0.00 61 1020.2
20201029195722 58 165 9.0 22.0 0.00 0.00 0.00 61 1020.2
20201029195652 58 169 9.0 22.0 0.00 0.00 0.00 61 1020.3
20201029195506 58 169 9.0 22.0 0.00 0.00 0.00 60 1020.3
20201029195408 58 169 9.0 22.0 0.00 0.00 0.00 60 1020.3
20201029195305 58 171 9.0 22.0 0.00 0.00 0.00 60 1020.4
20201029195207 58 169 9.0 22.0 0.00 0.00 0.00 60 1020.4
20201029195105 58 168 9.0 22.0 0.00 0.00 0.00 60 1020.3
20201029195005 58 165 8.0 22.0 0.00 0.00 0.00 60 1020.3
20201029194904 58 161 8.0 22.0 0.00 0.00 0.00 60 1020.3
20201029194809 58 159 8.0 22.0 0.00 0.00 0.00 60 1020.3
20201029194711 58 156 8.0 22.0 0.00 0.00 0.00 60 1020.4
20201029194619 58 153 8.0 22.0 0.00 0.00 0.00 60 1020.3
20201029194533 58 155 8.0 22.0 0.00 0.00 0.00 60 1020.3
20201029194404 58 157 8.0 22.0 0.00 0.00 0.00 60 1020.4
20201029194305 58 154 8.0 22.0 0.00 0.00 0.00 60 1020.4
20201029194207 58 154 8.0 22.0 0.00 0.00 0.00 60 1020.4
20201029194118 58 156 8.0 17.0 0.00 0.00 0.00 60 1020.4
20201029194020 58 157 8.0 17.0 0.00 0.00 0.00 60 1020.3
20201029193907 58 156 8.0 17.0 0.00 0.00 0.00 60 1020.4
20201029193807 58 158 8.0 17.0 0.00 0.00 0.00 60 1020.3
20201029193711 58 156 8.0 15.0 0.00 0.00 0.00 61 1020.3
20201029193606 58 155 8.0 15.0 0.00 0.00 0.00 61 1020.3
20201029193522 58 153 8.0 15.0 0.00 0.00 0.00 61 1020.3
20201029193405 58 152 8.0 16.0 0.00 0.00 0.00 60 1020.2
20201029193307 58 153 8.0 16.0 0.00 0.00 0.00 61 1020.2
20201029193213 58 154 8.0 16.0 0.00 0.00 0.00 61 1020.3
20201029193117 58 155 8.0 16.0 0.00 0.00 0.00 62 1020.2
20201029193043 57 156 8.0 16.0 0.00 0.00 0.00 61 1020.2
20201029192908 57 158 8.0 18.0 0.00 0.00 0.00 61 1020.2
20201029192811 57 160 8.0 18.0 0.00 0.00 0.00 61 1020.2
20201029192705 57 162 8.0 18.0 0.00 0.00 0.00 61 1020.2
20201029192616 57 163 9.0 18.0 0.00 0.00 0.00 61 1020.2
20201029192516 57 163 9.0 18.0 0.00 0.00 0.00 61 1020.3
20201029192406 57 164 9.0 18.0 0.00 0.00 0.00 61 1020.4
20201029192311 57 165 9.0 18.0 0.00 0.00 0.00 61 1020.2
20201029192205 57 165 9.0 18.0 0.00 0.00 0.00 62 1020.2
20201029192108 57 164 9.0 18.0 0.00 0.00 0.00 62 1020.2
20201029192025 57 163 9.0 18.0 0.00 0.00 0.00 62 1020.3
20201029191906 57 160 9.0 18.0 0.00 0.00 0.00 62 1020.3
20201029191805 57 159 8.0 18.0 0.00 0.00 0.00 62 1020.3
20201029191710 57 158 8.0 18.0 0.00 0.00 0.00 61 1020.4
20201029191605 57 157 8.0 18.0 0.00 0.00 0.00 61 1020.4
20201029191515 57 156 8.0 18.0 0.00 0.00 0.00 61 1020.3
20201029191405 57 155 8.0 18.0 0.00 0.00 0.00 62 1020.4
20201029191310 57 154 8.0 18.0 0.00 0.00 0.00 62 1020.4
20201029191204 57 153 8.0 18.0 0.00 0.00 0.00 62 1020.3
20201029191105 57 153 8.0 18.0 0.00 0.00 0.00 62 1020.4
20201029191026 57 154 8.0 18.0 0.00 0.00 0.00 63 1020.4
20201029190919 57 158 9.0 21.0 0.00 0.00 0.00 62 1020.4
20201029190808 57 160 9.0 21.0 0.00 0.00 0.00 63 1020.4
20201029190709 56 161 10.0 21.0 0.00 0.00 0.00 61 1020.4
20201029190616 57 162 9.0 21.0 0.00 0.00 0.00 61 1020.4
20201029190524 57 161 9.0 21.0 0.00 0.00 0.00 62 1020.4
20201029190409 57 158 9.0 21.0 0.00 0.00 0.00 61 1020.4
20201029190305 57 158 9.0 21.0 0.00 0.00 0.00 61 1020.4
20201029190205 57 155 9.0 21.0 0.00 0.00 0.00 62 1020.4
20201029190127 57 154 9.0 21.0 0.00 0.00 0.00 62 1020.5
20201029190022 57 153 9.0 21.0 0.00 0.00 0.00 61 1020.3
20201029185907 57 151 9.0 21.0 0.00 0.00 0.00 61 1020.4
20201029185806 57 148 9.0 21.0 0.00 0.00 0.00 63 1020.4
20201029185707 57 147 9.0 21.0 0.00 0.00 0.00 62 1020.5
20201029185606 57 147 10.0 21.0 0.00 0.00 0.00 62 1020.4
20201029185505 57 148 10.0 21.0 0.00 0.00 0.00 62 1020.4
20201029185408 57 148 10.0 21.0 0.00 0.00 0.00 62 1020.4
20201029185305 57 148 10.0 21.0 0.00 0.00 0.00 62 1020.4
20201029185209 57 150 10.0 21.0 0.00 0.00 0.00 62 1020.3
20201029185113 57 149 11.0 21.0 0.00 0.00 0.00 62 1020.4
20201029185021 57 148 11.0 21.0 0.00 0.00 0.00 62 1020.4
20201029184908 56 147 11.0 19.0 0.00 0.00 0.00 62 1020.3
20201029184805 56 148 11.0 22.0 0.00 0.00 0.00 62 1020.4
20201029184709 56 148 11.0 22.0 0.00 0.00 0.00 62 1020.4
20201029184608 56 147 11.0 22.0 0.00 0.00 0.00 62 1020.3
20201029184512 56 146 10.0 22.0 0.00 0.00 0.00 62 1020.4
20201029184415 56 148 10.0 22.0 0.00 0.00 0.00 61 1020.4
20201029184307 57 149 10.0 22.0 0.00 0.00 0.00 61 1020.4
20201029184204 57 152 10.0 22.0 0.00 0.00 0.00 61 1020.5
20201029184114 57 154 10.0 22.0 0.00 0.00 0.00 61 1020.4
20201029184022 57 155 10.0 22.0 0.00 0.00 0.00 61 1020.4
20201029183907 57 156 9.0 22.0 0.00 0.00 0.00 61 1020.3
20201029183812 57 153 9.0 20.0 0.00 0.00 0.00 61 1020.5
20201029183707 57 149 8.0 23.0 0.00 0.00 0.00 61 1020.5
20201029183606 57 148 8.0 23.0 0.00 0.00 0.00 61 1020.5
20201029183508 57 150 8.0 23.0 0.00 0.00 0.00 61 1020.5
20201029183414 57 149 9.0 23.0 0.00 0.00 0.00 61 1020.6
20201029183307 58 146 9.0 23.0 0.00 0.00 0.00 61 1020.5
20201029183205 57 143 8.0 23.0 0.00 0.00 0.00 62 1020.5
20201029183119 57 142 8.0 23.0 0.00 0.00 0.00 62 1020.5
20201029183018 57 141 9.0 23.0 0.00 0.00 0.00 62 1020.5
20201029182905 57 141 9.0 23.0 0.00 0.00 0.00 62 1020.5
20201029182815 57 143 9.0 23.0 0.00 0.00 0.00 62 1020.5
20201029182706 57 146 10.0 26.0 0.00 0.00 0.00 62 1020.6
20201029182614 57 147 10.0 26.0 0.00 0.00 0.00 61 1020.4
20201029182512 57 143 10.0 26.0 0.00 0.00 0.00 61 1020.5
20201029182413 57 144 9.0 26.0 0.00 0.00 0.00 62 1020.5
20201029182306 57 148 10.0 26.0 0.00 0.00 0.00 62 1020.6
20201029182205 56 148 10.0 26.0 0.00 0.00 0.00 62 1020.6
20201029182107 56 149 9.0 26.0 0.00 0.00 0.00 62 1020.6
20201029182021 56 150 9.0 26.0 0.00 0.00 0.00 61 1020.7
20201029181909 57 150 8.0 26.0 0.00 0.00 0.00 61 1020.7
20201029181808 57 148 8.0 26.0 0.00 0.00 0.00 61 1020.7
20201029181707 57 148 8.0 20.0 0.00 0.00 0.00 61 1020.6
20201029181605 57 150 8.0 20.0 0.00 0.00 0.00 61 1020.8
20201029181529 57 155 7.0 20.0 0.00 0.00 0.00 61 1020.9
20201029181413 57 156 7.0 20.0 0.00 0.00 0.00 61 1020.9
20201029181322 57 158 7.0 20.0 0.00 0.00 0.00 62 1021.0
20201029181207 57 159 7.0 20.0 0.00 0.00 0.00 62 1020.9
20201029181108 57 161 7.0 20.0 0.00 0.00 0.00 62 1020.9
20201029181009 57 163 8.0 20.0 0.00 0.00 0.00 62 1021.0
20201029180909 56 165 9.0 21.0 0.00 0.00 0.00 62 1020.9
20201029180808 56 165 10.0 21.0 0.00 0.00 0.00 62 1020.8
20201029180713 56 164 10.0 21.0 0.00 0.00 0.00 62 1020.7
20201029180616 56 164 11.0 21.0 0.00 0.00 0.00 62 1020.7
20201029180507 56 165 11.0 21.0 0.00 0.00 0.00 62 1020.7
20201029180411 56 165 11.0 21.0 0.00 0.00 0.00 62 1020.7
20201029180309 56 161 10.0 21.0 0.00 0.00 0.00 62 1020.6
20201029180210 56 160 10.0 21.0 0.00 0.00 0.00 62 1020.8
20201029180107 56 159 10.0 21.0 0.00 0.00 0.00 61 1020.7
20201029180030 56 155 10.0 21.0 0.00 0.00 0.00 61 1020.8
20201029175906 56 153 9.0 19.0 0.00 0.00 0.00 61 1020.8
20201029175810 56 151 9.0 23.0 0.00 0.00 0.00 60 1020.9
20201029175706 57 147 9.0 23.0 0.00 0.00 0.00 61 1020.9
20201029175608 57 142 8.0 23.0 0.00 0.00 0.00 61 1020.9
20201029175511 57 137 9.0 23.0 0.00 0.00 0.00 62 1020.9
20201029175405 56 135 9.0 23.0 0.00 0.00 0.00 62 1020.9
20201029175306 56 134 9.0 23.0 0.00 0.00 0.00 62 1020.9
20201029175205 56 134 9.0 23.0 0.00 0.00 0.00 62 1020.9
20201029175105 56 132 10.0 23.0 0.00 0.00 0.00 61 1020.9
20201029175009 56 132 9.0 23.0 0.00 0.00 0.00 62 1020.9
20201029174908 56 130 10.0 23.0 0.00 0.00 0.00 61 1020.7
20201029174809 56 131 9.0 22.0 0.00 0.00 0.00 62 1020.8
20201029174705 56 132 9.0 22.0 0.00 0.00 0.00 62 1020.8
20201029174608 56 133 8.0 22.0 0.00 0.00 0.00 62 1020.7
20201029174523 56 135 8.0 22.0 0.00 0.00 0.00 62 1020.5
20201029174405 56 136 8.0 22.0 0.00 0.00 0.00 62 1020.6
20201029174306 56 136 8.0 22.0 0.00 0.00 0.00 62 1020.7
20201029174206 56 135 8.0 22.0 0.00 0.00 0.00 61 1020.7
20201029174109 56 137 9.0 20.0 0.00 0.00 0.00 61 1020.7
20201029174006 56 140 9.0 20.0 0.00 0.00 0.00 61 1020.9
20201029173909 56 142 9.0 20.0 0.00 0.00 0.00 62 1020.6
20201029173808 56 144 9.0 20.0 0.00 0.00 0.00 62 1020.6
20201029173706 56 146 10.0 20.0 0.00 0.00 0.00 63 1020.6
20201029173605 56 147 10.0 20.0 0.00 0.00 0.00 63 1020.7
20201029173511 56 147 11.0 23.0 0.00 0.00 0.00 62 1020.6
20201029173408 56 145 11.0 23.0 0.00 0.00 0.00 62 1020.7
20201029173310 56 148 11.0 23.0 0.00 0.00 0.00 62 1020.7
20201029173213 56 149 10.0 23.0 0.00 0.00 0.00 62 1020.7
20201029173124 56 150 10.0 23.0 0.00 0.00 0.00 61 1020.6
20201029173039 56 149 10.0 23.0 0.00 0.00 0.00 62 1020.7
20201029172914 56 149 10.0 23.0 0.00 0.00 0.00 61 1020.6
20201029172805 56 148 9.0 23.0 0.00 0.00 0.00 62 1020.6
20201029172707 56 143 9.0 23.0 0.00 0.00 0.00 61 1020.6
20201029172604 56 140 9.0 23.0 0.00 0.00 0.00 61 1020.5
20201029172530 56 137 9.0 23.0 0.00 0.00 0.00 61 1020.6
20201029172406 56 141 9.0 26.0 0.00 0.00 0.00 61 1020.4
20201029172309 56 138 9.0 26.0 0.00 0.00 0.00 63 1020.6
20201029172206 56 139 10.0 26.0 0.00 0.00 0.00 62 1020.5
20201029172107 56 137 10.0 26.0 0.00 0.00 0.00 62 1020.5
20201029172010 56 137 10.0 26.0 0.00 0.00 0.00 63 1020.6
20201029171916 56 136 10.0 26.0 0.00 0.00 0.00 63 1020.5
20201029171809 55 138 11.0 26.0 0.00 0.00 0.00 62 1020.5
20201029171707 55 140 11.0 26.0 0.00 0.00 0.00 62 1020.5
20201029171604 55 141 11.0 26.0 0.00 0.00 0.00 62 1020.5
20201029171519 55 140 12.0 26.0 0.00 0.00 0.00 62 1020.5
20201029171406 56 136 12.0 22.0 0.00 0.00 0.00 62 1020.7
20201029171313 55 137 12.0 22.0 0.00 0.00 0.00 62 1020.5
20201029171207 55 135 12.0 22.0 0.00 0.00 0.00 62 1020.5
20201029171105 55 135 12.0 22.0 0.00 0.00 0.00 62 1020.5
20201029171020 55 133 12.0 22.0 0.00 0.00 0.00 62 1020.6
20201029170907 55 133 12.0 22.0 0.00 0.00 0.00 62 1020.6
20201029170805 55 131 12.0 22.0 0.00 0.00 0.00 61 1020.4
20201029170731 55 129 11.0 24.0 0.00 0.00 0.00 62 1020.5
20201029170606 56 128 11.0 24.0 0.00 0.00 0.00 62 1020.5
20201029170517 56 129 11.0 24.0 0.00 0.00 0.00 62 1020.5
20201029170406 56 132 11.0 24.0 0.00 0.00 0.00 61 1020.6
20201029170309 56 135 11.0 24.0 0.00 0.00 0.00 62 1020.5
20201029170206 56 136 11.0 24.0 0.00 0.00 0.00 61 1020.5
20201029170105 56 139 11.0 24.0 0.00 0.00 0.00 61 1020.5
20201029170031 56 139 11.0 24.0 0.00 0.00 0.00 61 1020.5
20201029165906 56 142 11.0 24.0 0.00 0.00 0.00 61 1020.5
20201029165807 56 145 11.0 24.0 0.00 0.00 0.00 61 1020.5
20201029165712 56 146 11.0 25.0 0.00 0.00 0.00 61 1020.4
20201029165605 56 149 10.0 25.0 0.00 0.00 0.00 61 1020.4
20201029165511 56 151 10.0 25.0 0.00 0.00 0.00 61 1020.5
20201029165405 56 151 10.0 25.0 0.00 0.00 0.00 62 1020.4
20201029165311 56 150 11.0 25.0 0.00 0.00 0.00 61 1020.6
20201029165205 56 149 11.0 25.0 0.00 0.00 0.00 61 1020.6
20201029165108 56 149 10.0 25.0 0.00 0.00 0.00 61 1020.5
20201029165008 56 150 10.0 25.0 0.00 0.00 0.00 61 1020.4
20201029164907 56 149 10.0 25.0 0.00 0.00 0.00 61 1020.4
20201029164808 56 147 10.0 25.0 0.00 0.00 0.00 60 1020.3
20201029164706 56 146 11.0 25.0 0.00 0.00 0.00 61 1020.3
20201029164605 56 147 11.0 25.0 0.00 0.00 0.00 61 1020.3
20201029164518 56 145 11.0 25.0 0.00 0.00 0.00 60 1020.4
20201029164405 56 146 10.0 25.0 0.00 0.00 0.00 61 1020.5
20201029164308 56 145 10.0 25.0 0.00 0.00 0.00 61 1020.2
20201029164207 56 144 10.0 25.0 0.00 0.00 0.00 61 1020.2
20201029164105 56 142 11.0 25.0 0.00 0.00 0.00 60 1020.3
20201029164019 56 140 11.0 25.0 0.00 0.00 0.00 60 1020.4
20201029163905 56 138 11.0 25.0 0.00 0.00 0.00 60 1020.5
20201029163807 56 139 11.0 25.0 0.00 0.00 0.00 60 1020.3
20201029163706 57 139 10.0 24.0 0.00 0.00 0.00 61 1020.4
20201029163609 56 138 10.0 22.0 0.00 0.00 0.00 61 1020.3
20201029163505 56 140 10.0 22.0 0.00 0.00 0.00 61 1020.2
20201029163405 56 139 11.0 22.0 0.00 0.00 0.00 61 1020.3
20201029163306 56 140 11.0 22.0 0.00 0.00 0.00 61 1020.2
20201029163208 56 144 11.0 22.0 0.00 0.00 0.00 60 1020.1
20201029163108 56 147 10.0 22.0 0.00 0.00 0.00 61 1020.1
20201029163010 56 151 10.0 20.0 0.00 0.00 0.00 61 1020.2
20201029162905 56 154 10.0 20.0 0.00 0.00 0.00 61 1020.2
20201029162805 56 155 10.0 20.0 0.00 0.00 0.00 61 1020.1
20201029162707 56 156 10.0 22.0 0.00 0.00 0.00 61 1020.1
20201029162605 56 155 10.0 23.0 0.00 0.00 0.00 62 1020.2
20201029162513 56 155 11.0 23.0 0.00 0.00 0.00 61 1020.2
20201029162406 56 156 11.0 23.0 0.00 0.00 0.00 61 1020.2
20201029162307 56 157 11.0 23.0 0.00 0.00 0.00 62 1020.2
20201029162208 56 154 11.0 23.0 0.00 0.00 0.00 62 1020.1
20201029162112 56 153 11.0 23.0 0.00 0.00 0.00 62 1020.1
20201029162012 56 151 11.0 23.0 0.00 0.00 0.00 62 1020.2
20201029161910 56 151 12.0 23.0 0.00 0.00 0.00 61 1020.1
20201029161804 56 151 11.0 23.0 0.00 0.00 0.00 61 1020.1
20201029161709 56 151 11.0 23.0 0.00 0.00 0.00 61 1020.1
20201029161605 56 153 11.0 22.0 0.00 0.00 0.00 61 1020.2
20201029161518 56 155 10.0 22.0 0.00 0.00 0.00 61 1020.2
20201029161413 56 153 10.0 22.0 0.00 0.00 0.00 61 1020.1
20201029161308 56 151 10.0 22.0 0.00 0.00 0.00 62 1020.1
20201029161205 56 151 10.0 22.0 0.00 0.00 0.00 62 1020.1
20201029161105 56 152 10.0 22.0 0.00 0.00 0.00 62 1020.1
20201029161008 56 153 10.0 22.0 0.00 0.00 0.00 62 1020.0
20201029160907 56 152 10.0 22.0 0.00 0.00 0.00 63 1020.0
20201029160807 56 150 10.0 22.0 0.00 0.00 0.00 62 1020.0
20201029160705 55 152 11.0 23.0 0.00 0.00 0.00 62 1020.0
20201029160605 55 151 11.0 23.0 0.00 0.00 0.00 62 1020.0
20201029160517 55 147 11.0 23.0 0.00 0.00 0.00 62 1019.9
20201029160409 55 148 11.0 23.0 0.00 0.00 0.00 62 1019.9
20201029160309 55 149 11.0 23.0 0.00 0.00 0.00 63 1020.0
20201029160204 55 149 11.0 29.0 0.00 0.00 0.00 63 1019.9
20201029160113 55 150 12.0 29.0 0.00 0.00 0.00 62 1020.0
20201029160019 55 149 12.0 29.0 0.00 0.00 0.00 62 1019.7
20201029155905 55 148 11.0 29.0 0.00 0.00 0.00 62 1019.9
20201029155807 55 149 12.0 29.0 0.00 0.00 0.00 62 1019.8
20201029155705 55 147 12.0 29.0 0.00 0.00 0.00 63 1019.9
20201029155604 55 146 12.0 29.0 0.00 0.00 0.00 62 1019.8
20201029155505 55 148 13.0 29.0 0.00 0.00 0.00 62 1019.8
20201029155404 55 148 12.0 29.0 0.00 0.00 0.00 62 1019.8
20201029155308 55 148 13.0 29.0 0.00 0.00 0.00 62 1019.7
20201029155204 55 148 13.0 28.0 0.00 0.00 0.00 62 1019.7
20201029155105 55 148 12.0 27.0 0.00 0.00 0.00 63 1019.6
20201029155010 55 147 12.0 27.0 0.00 0.00 0.00 62 1019.6
20201029154906 55 149 13.0 27.0 0.00 0.00 0.00 62 1019.5
20201029154810 55 148 12.0 27.0 0.00 0.00 0.00 62 1019.4
20201029154717 55 147 12.0 27.0 0.00 0.00 0.00 62 1019.4
20201029154609 55 146 11.0 24.0 0.00 0.00 0.00 62 1019.5
20201029154519 55 145 10.0 23.0 0.00 0.00 0.00 62 1019.5
20201029154406 55 144 10.0 23.0 0.00 0.00 0.00 62 1019.5
20201029154308 55 142 10.0 26.0 0.00 0.00 0.00 62 1019.5
20201029154206 55 142 10.0 26.0 0.00 0.00 0.00 62 1019.5
20201029154107 55 142 10.0 26.0 0.00 0.00 0.00 62 1019.5
20201029154005 55 141 10.0 26.0 0.00 0.00 0.00 63 1019.6
20201029153907 55 139 10.0 26.0 0.00 0.00 0.00 63 1019.6
20201029153808 55 138 10.0 26.0 0.00 0.00 0.00 63 1019.5
20201029153706 54 139 10.0 26.0 0.00 0.00 0.00 63 1019.4
20201029153605 54 140 10.0 26.0 0.00 0.00 0.00 63 1019.4
20201029153513 54 141 10.0 26.0 0.00 0.01 0.00 63 1019.4
20201029153406 54 141 10.0 26.0 0.00 0.01 0.00 63 1019.4
20201029153305 54 144 10.0 27.0 0.00 0.01 0.00 63 1019.4
20201029153207 55 144 10.0 27.0 0.00 0.01 0.00 62 1019.4
20201029153113 55 146 10.0 27.0 0.00 0.01 0.00 62 1019.3
20201029153015 55 148 9.0 27.0 0.00 0.01 0.00 63 1019.3
20201029152908 55 155 9.0 27.0 0.00 0.01 0.00 63 1019.2
20201029152806 55 156 9.0 27.0 0.00 0.01 0.00 64 1019.3
20201029152705 55 158 9.0 27.0 0.00 0.01 0.00 64 1019.3
20201029152607 54 158 9.0 27.0 0.00 0.01 0.00 63 1019.2
20201029152516 54 158 9.0 27.0 0.00 0.01 0.00 63 1019.3
20201029152408 54 159 9.0 27.0 0.00 0.01 0.00 63 1019.2
20201029152307 54 158 8.0 26.0 0.00 0.01 0.00 63 1019.2
20201029152205 54 155 8.0 20.0 0.00 0.01 0.00 63 1019.1
20201029152108 54 154 8.0 20.0 0.00 0.01 0.00 63 1019.0
20201029152007 55 151 9.0 19.0 0.00 0.01 0.00 63 1019.1
20201029151908 55 146 9.0 19.0 0.00 0.01 0.00 63 1018.9
20201029151806 55 145 9.0 19.0 0.00 0.01 0.00 64 1018.9
20201029151705 54 144 9.0 20.0 0.00 0.01 0.00 63 1018.8
20201029151605 54 144 9.0 20.0 0.00 0.01 0.00 64 1018.7
20201029151516 54 145 10.0 24.0 0.00 0.01 0.00 64 1018.7
20201029151405 54 146 10.0 24.0 0.00 0.01 0.00 63 1018.7
20201029151311 54 148 11.0 24.0 0.00 0.01 0.00 63 1018.7
20201029151205 54 147 11.0 24.0 0.00 0.01 0.00 63 1018.7
20201029151109 54 145 11.0 24.0 0.00 0.01 0.00 63 1018.6
20201029151008 54 143 11.0 24.0 0.00 0.01 0.00 63 1018.6
20201029150905 54 144 12.0 24.0 0.00 0.01 0.00 63 1018.5
20201029150807 54 145 12.0 24.0 0.00 0.01 0.00 63 1018.4
20201029150708 54 144 12.0 24.0 0.00 0.01 0.00 63 1018.4
20201029150606 54 143 12.0 24.0 0.00 0.01 0.00 64 1018.4
20201029150518 54 143 13.0 28.0 0.00 0.01 0.00 64 1018.4
20201029150411 54 141 12.0 28.0 0.00 0.01 0.00 64 1018.3
20201029150309 54 140 12.0 28.0 0.00 0.01 0.00 64 1018.4
20201029150206 54 141 12.0 28.0 0.00 0.01 0.00 64 1018.4
20201029150112 54 143 12.0 28.0 0.00 0.01 0.00 64 1018.4
20201029150021 54 144 12.0 28.0 0.00 0.01 0.00 64 1018.3
20201029145907 54 143 11.0 28.0 0.00 0.01 0.00 64 1018.3
20201029145805 54 143 11.0 28.0 0.00 0.01 0.00 64 1018.2
20201029145705 54 146 11.0 28.0 0.00 0.01 0.00 64 1018.2
20201029145606 54 146 11.0 28.0 0.00 0.01 0.00 63 1018.2
20201029145511 54 146 10.0 26.0 0.00 0.01 0.00 64 1018.2
20201029145405 54 145 10.0 26.0 0.00 0.01 0.00 64 1018.1
20201029145306 54 145 10.0 26.0 0.00 0.01 0.00 64 1018.1
20201029145206 54 144 10.0 26.0 0.00 0.01 0.00 64 1018.2
20201029145110 54 143 9.0 24.0 0.00 0.01 0.00 64 1018.1
20201029145024 54 142 9.0 24.0 0.00 0.01 0.00 65 1018.0
20201029144908 54 144 10.0 24.0 0.00 0.01 0.00 64 1018.0
20201029144813 54 145 10.0 23.0 0.00 0.01 0.00 64 1018.0
20201029144705 54 141 9.0 23.0 0.00 0.01 0.00 65 1018.0
20201029144608 54 141 10.0 20.0 0.00 0.01 0.00 65 1018.0
20201029144522 54 141 10.0 24.0 0.00 0.01 0.00 65 1018.1
20201029144407 54 144 10.0 24.0 0.00 0.01 0.00 65 1018.0
20201029144308 54 144 10.0 24.0 0.00 0.01 0.00 65 1018.0
20201029144205 54 145 10.0 24.0 0.00 0.01 0.00 65 1018.1
20201029144107 54 146 10.0 24.0 0.00 0.01 0.00 64 1018.0
20201029144013 54 146 10.0 24.0 0.00 0.01 0.00 64 1018.2
20201029143905 54 144 10.0 24.0 0.00 0.01 0.00 65 1018.0
20201029143806 54 143 10.0 24.0 0.00 0.01 0.00 65 1018.0
20201029143708 54 143 10.0 24.0 0.00 0.01 0.00 65 1017.9
20201029143606 54 144 10.0 24.0 0.00 0.01 0.00 65 1018.0
20201029143505 54 143 10.0 21.0 0.00 0.01 0.00 65 1017.9
20201029143406 54 139 10.0 21.0 0.00 0.01 0.00 65 1017.7
20201029143306 54 139 9.0 21.0 0.00 0.01 0.00 65 1017.7
20201029143206 54 138 9.0 21.0 0.00 0.01 0.00 65 1017.6
20201029143105 53 136 9.0 21.0 0.00 0.01 0.00 65 1017.7
20201029143029 53 134 10.0 21.0 0.00 0.01 0.00 65 1017.6
20201029142912 53 134 10.0 21.0 0.00 0.01 0.00 65 1017.6
20201029142806 53 132 10.0 21.0 0.00 0.01 0.00 65 1017.5
20201029142711 53 132 10.0 24.0 0.00 0.01 0.00 65 1017.5
20201029142610 53 133 11.0 24.0 0.00 0.01 0.00 65 1017.5
20201029142515 53 133 11.0 24.0 0.00 0.01 0.00 65 1017.5
20201029142418 53 134 10.0 24.0 0.00 0.01 0.00 65 1017.5
20201029142306 53 135 11.0 24.0 0.00 0.01 0.00 65 1017.6
20201029142206 53 135 10.0 24.0 0.00 0.01 0.00 65 1017.6
20201029142112 53 135 10.0 24.0 0.00 0.01 0.00 65 1017.5
20201029142023 53 136 10.0 24.0 0.00 0.01 0.00 65 1017.5
20201029141913 53 137 10.0 24.0 0.00 0.01 0.00 65 1017.5
20201029141813 53 139 10.0 24.0 0.00 0.01 0.00 65 1017.5
20201029141726 53 137 10.0 23.0 0.00 0.01 0.00 65 1017.5
20201029141627 53 137 10.0 21.0 0.00 0.01 0.00 66 1017.4
20201029141533 53 138 10.0 21.0 0.00 0.01 0.00 66 1017.4
20201029141404 53 136 10.0 21.0 0.00 0.01 0.00 66 1017.3
20201029141306 53 136 11.0 21.0 0.00 0.01 0.00 66 1017.3
20201029141205 53 137 11.0 21.0 0.00 0.01 0.00 66 1017.3
20201029141107 53 136 11.0 21.0 0.00 0.01 0.00 66 1017.3
20201029141010 53 136 11.0 21.0 0.00 0.01 0.00 66 1017.3
20201029140907 53 134 11.0 21.0 0.00 0.01 0.00 66 1017.2
20201029140805 53 135 10.0 21.0 0.00 0.01 0.00 66 1017.1
20201029140713 52 136 10.0 21.0 0.00 0.01 0.00 67 1017.2
20201029140619 52 136 10.0 21.0 0.00 0.01 0.00 66 1017.2
20201029140522 52 136 10.0 29.0 0.00 0.01 0.00 66 1017.1
20201029140412 52 136 10.0 29.0 0.00 0.01 0.00 66 1017.2
20201029140308 52 136 10.0 29.0 0.00 0.01 0.00 66 1017.3
20201029140205 52 136 10.0 29.0 0.00 0.01 0.00 67 1017.2
20201029140104 52 137 10.0 29.0 0.00 0.01 0.00 67 1017.3
20201029140023 52 139 10.0 29.0 0.00 0.01 0.00 67 1017.2
20201029135905 52 139 10.0 29.0 0.00 0.01 0.00 67 1017.2
20201029135805 52 137 10.0 29.0 0.00 0.01 0.00 67 1017.2
20201029135704 52 138 10.0 29.0 0.00 0.01 0.00 67 1016.9
20201029135605 52 137 10.0 29.0 0.00 0.01 0.00 67 1016.9
20201029135507 52 136 9.0 23.0 0.00 0.02 0.00 67 1017.1
20201029135407 52 137 9.0 23.0 0.00 0.02 0.00 67 1016.8
20201029135312 52 138 9.0 23.0 0.00 0.02 0.00 67 1016.8
20201029135205 52 138 9.0 23.0 0.00 0.02 0.00 67 1016.8
20201029135105 52 140 9.0 23.0 0.00 0.02 0.00 67 1016.8
20201029135008 52 137 9.0 23.0 0.00 0.02 0.00 68 1016.9
20201029134912 52 136 9.0 22.0 0.00 0.02 0.00 68 1016.7
20201029134805 52 137 9.0 27.0 0.00 0.02 0.00 68 1016.6
20201029134712 52 140 9.0 27.0 0.00 0.02 0.00 68 1016.6
20201029134610 52 139 9.0 27.0 0.00 0.02 0.00 68 1016.5
20201029134520 52 139 9.0 27.0 0.00 0.02 0.00 68 1016.5
20201029134406 52 139 9.0 27.0 0.00 0.02 0.00 68 1016.5
20201029134311 52 139 10.0 27.0 0.00 0.03 0.00 68 1016.4
20201029134207 52 138 9.0 27.0 0.00 0.03 0.00 68 1016.3
20201029134107 52 137 9.0 27.0 0.00 0.03 0.00 68 1016.3
20201029134008 51 140 9.0 27.0 0.00 0.03 0.00 68 1016.3
20201029133909 51 142 9.0 27.0 0.00 0.03 0.00 68 1016.1
20201029133804 51 142 9.0 26.0 0.00 0.03 0.00 68 1016.1
20201029133706 51 140 9.0 19.0 0.00 0.03 0.00 68 1016.1
20201029133606 51 142 9.0 19.0 0.00 0.03 0.00 69 1016.2
20201029133524 51 143 9.0 19.0 0.00 0.03 0.00 69 1015.9
20201029133405 51 145 9.0 19.0 0.00 0.03 0.00 69 1016.3
20201029133305 51 144 9.0 18.0 0.00 0.03 0.00 69 1016.1
20201029133205 51 145 9.0 18.0 0.00 0.03 0.00 69 1016.1
20201029133111 51 145 10.0 23.0 0.00 0.03 0.00 69 1016.2
20201029133008 51 146 10.0 23.0 0.00 0.04 0.00 69 1016.2
20201029132907 51 146 10.0 23.0 0.00 0.04 0.00 69 1016.1
20201029132806 51 148 9.0 23.0 0.00 0.04 0.00 69 1016.1
20201029132706 51 145 9.0 23.0 0.00 0.04 0.00 69 1016.1
20201029132606 51 144 9.0 23.0 0.00 0.04 0.00 69 1016.1
20201029132513 51 143 9.0 23.0 0.00 0.04 0.00 69 1016.1
20201029132416 51 141 9.0 23.0 0.00 0.04 0.00 69 1016.2
20201029132306 51 141 9.0 23.0 0.00 0.04 0.00 69 1016.1
20201029132213 51 141 8.0 23.0 0.00 0.04 0.00 69 1016.0
20201029132113 51 140 8.0 22.0 0.00 0.04 0.00 69 1016.1
20201029132006 51 138 8.0 22.0 0.00 0.04 0.00 69 1016.0
20201029131908 51 137 8.0 22.0 0.00 0.04 0.00 69 1016.0
20201029131807 51 136 8.0 22.0 0.00 0.04 0.00 69 1016.1
20201029131715 51 137 7.0 22.0 0.00 0.04 0.00 69 1016.0
20201029131611 51 138 7.0 21.0 0.00 0.04 0.00 70 1016.0
20201029131520 50 139 7.0 17.0 0.00 0.04 0.00 70 1016.1
20201029131407 50 137 7.0 17.0 0.00 0.04 0.00 70 1016.0
20201029131307 50 136 7.0 17.0 0.00 0.04 0.00 70 1016.0
20201029131207 50 135 7.0 17.0 0.00 0.04 0.00 70 1016.0
20201029131105 50 135 7.0 17.0 0.00 0.04 0.00 70 1016.1
20201029131006 50 135 7.0 17.0 0.00 0.04 0.00 70 1015.9
20201029130905 50 133 7.0 17.0 0.00 0.04 0.00 70 1015.9
20201029130807 50 133 7.0 17.0 0.00 0.04 0.00 70 1015.8
20201029130710 50 134 7.0 17.0 0.00 0.04 0.00 70 1016.1
20201029130606 50 134 7.0 17.0 0.00 0.04 0.00 70 1015.9
20201029130514 50 132 7.0 16.0 0.00 0.04 0.00 70 1016.0
20201029130421 50 135 6.0 16.0 0.00 0.04 0.00 70 1016.0
20201029130307 50 134 6.0 16.0 0.00 0.04 0.00 70 1016.0
20201029130205 50 134 6.0 14.0 0.00 0.04 0.00 71 1015.8
20201029130107 50 135 6.0 14.0 0.00 0.04 0.00 71 1015.9
20201029130025 50 136 6.0 14.0 0.00 0.04 0.00 70 1015.8
20201029125908 50 138 5.0 14.0 0.00 0.04 0.00 71 1015.9
20201029125807 50 139 5.0 14.0 0.00 0.04 0.00 71 1016.0
20201029125705 50 137 5.0 14.0 0.00 0.04 0.00 71 1015.9
20201029125611 50 135 5.0 14.0 0.00 0.04 0.00 70 1015.9
20201029125511 50 136 5.0 17.0 0.00 0.04 0.00 70 1015.9
20201029125420 50 133 5.0 17.0 0.00 0.04 0.00 71 1015.8
20201029125307 50 132 5.0 17.0 0.00 0.04 0.00 71 1015.9
20201029125212 50 131 5.0 17.0 0.00 0.04 0.00 71 1015.7
20201029125106 50 131 6.0 17.0 0.00 0.04 0.00 71 1015.7
20201029125011 50 132 7.0 20.0 0.00 0.04 0.00 71 1015.7
20201029124907 50 132 8.0 20.0 0.00 0.04 0.00 70 1015.6
20201029124805 50 131 8.0 20.0 0.00 0.05 0.00 70 1015.6
20201029124705 50 131 8.0 20.0 0.00 0.05 0.00 70 1015.6
20201029124605 50 129 8.0 20.0 0.00 0.05 0.00 70 1015.6
20201029124536 50 129 8.0 20.0 0.00 0.05 0.00 70 1015.5
20201029124408 50 131 8.0 20.0 0.00 0.05 0.00 70 1015.6
20201029124324 50 131 8.0 20.0 0.00 0.05 0.00 70 1015.6
20201029124206 50 132 8.0 20.0 0.00 0.05 0.00 70 1015.6
20201029124112 50 132 8.0 20.0 0.00 0.05 0.00 70 1015.6
20201029124009 50 131 8.0 20.0 0.00 0.05 0.00 70 1015.7
20201029123909 50 132 8.0 16.0 0.00 0.05 0.00 71 1015.7
20201029123805 50 133 8.0 16.0 0.00 0.05 0.00 71 1015.6
20201029123705 50 130 8.0 16.0 0.00 0.05 0.00 70 1015.6
20201029123607 50 131 8.0 16.0 0.00 0.05 0.00 71 1015.6
20201029123509 50 133 8.0 16.0 0.00 0.05 0.00 71 1015.6
20201029123414 50 131 8.0 16.0 0.00 0.05 0.00 71 1015.5
20201029123305 50 131 7.0 16.0 0.00 0.05 0.00 71 1015.5
20201029123205 50 130 7.0 16.0 0.00 0.05 0.00 71 1015.6
20201029123108 50 130 7.0 16.0 0.00 0.05 0.00 71 1015.6
20201029123026 50 130 7.0 16.0 0.00 0.05 0.00 71 1015.6
20201029122907 50 128 6.0 16.0 0.00 0.05 0.00 71 1015.5
20201029122805 50 128 6.0 16.0 0.00 0.05 0.00 72 1015.5
20201029122704 50 132 5.0 13.0 0.00 0.05 0.00 72 1015.6
20201029122606 50 132 5.0 13.0 0.00 0.05 0.00 72 1015.6
20201029122521 50 132 5.0 13.0 0.00 0.06 0.00 72 1015.5
20201029122405 50 132 5.0 12.0 0.00 0.06 0.00 72 1015.5
20201029122307 50 132 5.0 12.0 0.00 0.06 0.00 72 1015.5
20201029122205 50 132 5.0 12.0 0.00 0.06 0.00 73 1015.5
20201029122106 50 131 5.0 18.0 0.00 0.06 0.00 73 1015.4
20201029122011 50 130 5.0 18.0 0.00 0.06 0.00 73 1015.5
20201029121909 50 131 5.0 18.0 0.00 0.06 0.00 73 1015.4
20201029121811 50 131 5.0 18.0 0.00 0.06 0.00 73 1015.4
20201029121709 50 131 5.0 18.0 0.00 0.06 0.00 73 1015.4
20201029121606 50 131 5.0 18.0 0.00 0.06 0.00 73 1015.3
20201029121513 50 130 4.0 18.0 0.00 0.06 0.00 73 1015.3
20201029121406 50 130 4.0 18.0 0.00 0.06 0.00 73 1015.2
20201029121311 50 131 3.0 18.0 0.00 0.06 0.00 73 1015.3
20201029121204 49 132 3.0 18.0 0.00 0.06 0.00 73 1015.2
20201029121105 49 133 3.0 13.0 0.00 0.06 0.00 74 1015.2
20201029121009 49 133 3.0 13.0 0.00 0.06 0.00 74 1015.2
20201029120907 49 130 3.0 14.0 0.00 0.06 0.00 74 1015.2
20201029120806 49 129 3.0 14.0 0.00 0.06 0.00 74 1015.2
20201029120722 49 128 3.0 14.0 0.00 0.06 0.00 74 1015.2
20201029120608 49 128 3.0 14.0 0.00 0.06 0.00 74 1015.2
20201029120508 49 127 4.0 14.0 0.00 0.06 0.00 74 1015.1
20201029120409 49 127 4.0 14.0 0.00 0.06 0.00 74 1015.1
20201029120310 49 127 4.0 14.0 0.00 0.06 0.00 74 1015.1
20201029120218 49 127 4.0 14.0 0.00 0.06 0.00 74 1015.1
20201029120107 49 127 4.0 14.0 0.00 0.06 0.00 74 1015.1
20201029120024 49 125 4.0 14.0 0.00 0.06 0.00 74 1015.1
20201029115913 49 124 4.0 13.0 0.00 0.06 0.00 74 1015.1
20201029115810 49 123 4.0 13.0 0.00 0.06 0.00 74 1014.9
20201029115708 49 122 3.0 13.0 0.00 0.06 0.00 74 1015.1
20201029115613 49 122 3.0 10.0 0.00 0.06 0.00 74 1015.0
20201029115517 49 120 3.0 13.0 0.00 0.06 0.00 74 1015.0
20201029115405 49 119 3.0 13.0 0.00 0.06 0.00 74 1015.0
20201029115310 49 119 3.0 13.0 0.00 0.06 0.00 74 1014.9
20201029115206 49 119 3.0 13.0 0.00 0.06 0.00 75 1014.9
20201029115106 49 120 3.0 13.0 0.00 0.06 0.00 75 1014.9
20201029115018 49 122 3.0 13.0 0.00 0.06 0.00 75 1014.9
20201029114915 49 124 3.0 13.0 0.00 0.06 0.00 75 1014.8
20201029114805 49 126 3.0 13.0 0.00 0.06 0.00 75 1014.8
20201029114705 49 126 4.0 13.0 0.00 0.06 0.00 75 1014.8
20201029114608 49 126 4.0 13.0 0.00 0.06 0.00 75 1014.8
20201029114523 49 127 3.0 12.0 0.00 0.06 0.00 75 1014.8
20201029114405 48 128 4.0 12.0 0.00 0.06 0.00 76 1014.8
20201029114310 48 127 4.0 12.0 0.00 0.06 0.00 76 1014.7
20201029114206 48 126 4.0 12.0 0.00 0.06 0.00 76 1014.7
20201029114109 48 124 3.0 12.0 0.00 0.06 0.00 76 1014.7
20201029114010 48 122 3.0 12.0 0.00 0.07 0.00 77 1014.7
20201029113906 48 121 2.0 11.0 0.00 0.07 0.00 77 1014.7
20201029113804 47 118 2.0 11.0 0.00 0.07 0.00 78 1014.7
20201029113721 47 118 1.0 9.0 0.00 0.07 0.00 78 1014.6
20201029113605 47 117 1.0 9.0 0.00 0.07 0.00 79 1014.7
20201029113519 47 117 1.0 9.0 0.00 0.07 0.00 79 1014.7
20201029113405 47 112 1.0 9.0 0.00 0.07 0.00 79 1014.7
20201029113306 46 108 1.0 6.0 0.00 0.07 0.00 80 1014.6
20201029113213 46 103 0.0 5.0 0.00 0.08 0.00 80 1014.5
20201029113111 46 111 0.0 4.0 0.00 0.08 0.00 80 1014.6
20201029113028 46 116 0.0 4.0 0.00 0.08 0.00 81 1014.6
20201029112911 45 113 0.0 3.0 0.00 0.08 0.00 81 1014.5
20201029112806 45 112 0.0 3.0 0.00 0.08 0.00 82 1014.6
20201029112707 45 106 0.0 3.0 0.00 0.09 0.00 82 1014.6
20201029112609 45 104 0.0 2.0 0.00 0.10 0.00 82 1014.5
20201029112508 45 101 0.0 2.0 0.00 0.10 0.00 82 1014.5
20201029112408 44 101 0.0 2.0 0.00 0.10 0.00 83 1014.5
20201029112306 44 98 0.0 2.0 0.00 0.10 0.00 83 1014.5
20201029112208 44 96 0.0 2.0 0.00 0.10 0.00 83 1014.5
20201029112104 44 93 0.0 2.0 0.00 0.10 0.00 83 1014.5
20201029112005 44 93 0.0 2.0 0.00 0.10 0.00 83 1014.5
20201029111906 44 93 0.0 2.0 0.00 0.10 0.00 83 1014.4
20201029111814 44 92 0.0 1.0 0.00 0.10 0.00 84 1014.4
20201029111710 43 106 0.0 1.0 0.00 0.10 0.00 84 1014.4
20201029111605 43 117 0.0 1.0 0.00 0.10 0.00 85 1014.5
20201029111522 43 117 0.0 1.0 0.00 0.10 0.00 85 1014.4
20201029111409 43 0 0.0 1.0 0.00 0.10 0.00 85 1014.4
20201029111306 43 0 0.0 1.0 0.00 0.10 0.00 85 1014.5
20201029111204 43 0 0.0 1.0 0.00 0.10 0.00 85 1014.5
20201029111113 43 0 0.0 1.0 0.00 0.10 0.00 85 1014.5
20201029111029 43 0 0.0 1.0 0.00 0.10 0.00 85 1014.4
20201029110905 43 83 0.0 1.0 0.00 0.10 0.00 85 1014.4
20201029110809 43 83 0.0 1.0 0.00 0.10 0.00 85 1014.4
20201029110706 43 88 0.0 1.0 0.00 0.10 0.00 85 1014.4
20201029110609 43 90 0.0 1.0 0.00 0.10 0.00 85 1014.4
20201029110521 43 88 0.0 1.0 0.00 0.10 0.00 85 1014.3
20201029110407 43 87 0.0 1.0 0.00 0.10 0.00 85 1014.4
20201029110305 43 85 0.0 1.0 0.00 0.10 0.00 85 1014.3
20201029110206 43 85 0.0 1.0 0.00 0.10 0.00 85 1014.2
20201029110113 43 85 0.0 1.0 0.00 0.10 0.00 85 1014.2
20201029110028 43 84 0.0 1.0 0.00 0.10 0.00 85 1014.2
20201029105913 43 84 0.0 1.0 0.00 0.10 0.00 85 1014.2
20201029105805 43 84 0.0 1.0 0.00 0.10 0.00 85 1014.2
20201029105708 43 82 0.0 1.0 0.00 0.10 0.00 85 1014.2
20201029105605 43 80 0.0 1.0 0.00 0.11 0.00 85 1014.2
20201029105512 43 79 0.0 1.0 0.00 0.11 0.00 85 1014.1
20201029105407 43 80 0.0 1.0 0.00 0.11 0.00 85 1014.1
20201029105309 43 80 0.0 1.0 0.00 0.11 0.00 85 1014.2
20201029105205 43 80 0.0 1.0 0.00 0.11 0.00 85 1014.1
20201029105108 43 80 0.0 1.0 0.00 0.11 0.00 85 1014.1
20201029105020 43 80 0.0 1.0 0.00 0.11 0.00 85 1014.2
20201029104908 43 79 0.0 1.0 0.00 0.11 0.00 85 1014.1
20201029104811 43 79 0.0 1.0 0.00 0.11 0.00 85 1014.1
20201029104705 43 82 0.0 1.0 0.00 0.12 0.00 85 1014.1
20201029104607 43 86 0.0 1.0 0.00 0.12 0.00 85 1014.1
20201029104525 43 90 0.0 1.0 0.00 0.12 0.00 85 1014.0
20201029104404 43 90 0.0 1.0 0.00 0.12 0.00 85 1014.1
20201029104310 43 92 0.0 1.0 0.00 0.12 0.00 85 1014.1
20201029104224 43 89 0.0 1.0 0.00 0.12 0.00 86 1014.1
20201029104108 43 87 0.0 1.0 0.00 0.12 0.00 86 1014.0
20201029104011 43 87 0.0 1.0 0.00 0.12 0.00 86 1014.0
20201029103907 43 87 0.0 1.0 0.00 0.12 0.00 86 1013.9
20201029103818 43 87 0.0 1.0 0.00 0.12 0.00 86 1014.0
20201029103709 43 86 0.0 1.0 0.00 0.12 0.00 86 1013.9
20201029103607 43 86 0.0 1.0 0.00 0.12 0.00 86 1013.9
20201029103510 43 83 0.0 1.0 0.00 0.12 0.00 87 1013.9
20201029103407 43 82 0.0 1.0 0.00 0.12 0.00 87 1013.8
20201029103308 43 81 0.0 1.0 0.00 0.12 0.00 87 1013.9
20201029103213 43 82 0.0 1.0 0.00 0.12 0.00 87 1013.8
20201029103106 43 82 0.0 1.0 0.00 0.12 0.00 87 1013.8
20201029103054 43 82 0.0 1.0 0.00 0.12 0.00 87 1013.8
20201029102908 43 81 0.0 1.0 0.00 0.12 0.00 87 1013.8
20201029102809 43 79 0.0 1.0 0.00 0.12 0.00 86 1013.8
20201029102710 43 77 0.0 1.0 0.00 0.12 0.00 86 1013.8
20201029102609 43 76 0.0 1.0 0.00 0.12 0.00 86 1013.8
20201029102508 43 76 0.0 1.0 0.00 0.12 0.00 86 1013.8
20201029102406 43 76 0.0 1.0 0.00 0.12 0.00 86 1013.8
20201029102319 43 74 0.0 1.0 0.00 0.12 0.00 86 1013.8
20201029102208 43 74 0.0 1.0 0.00 0.12 0.00 86 1013.9
20201029102105 43 72 0.0 1.0 0.00 0.12 0.00 86 1013.9
20201029102022 43 72 0.0 1.0 0.00 0.12 0.00 86 1013.9
20201029101907 43 71 0.0 1.0 0.00 0.12 0.00 86 1013.9
20201029101807 43 67 0.0 1.0 0.00 0.12 0.00 86 1013.9
20201029101707 43 65 0.0 1.0 0.00 0.12 0.00 86 1013.9
20201029101610 43 63 0.0 1.0 0.00 0.12 0.00 86 1013.9
20201029101519 43 63 0.0 1.0 0.00 0.12 0.00 86 1013.9
20201029101410 43 63 0.0 1.0 0.00 0.12 0.00 86 1013.9
20201029101308 43 62 0.0 1.0 0.00 0.12 0.00 86 1013.8
20201029101205 43 62 0.0 1.0 0.00 0.12 0.00 86 1013.9
20201029101105 43 63 0.0 1.0 0.00 0.12 0.00 86 1013.9
20201029101013 44 62 0.0 1.0 0.00 0.12 0.00 86 1013.9
20201029100905 44 60 0.0 1.0 0.00 0.12 0.00 86 1013.9
20201029100825 44 62 0.0 1.0 0.00 0.12 0.00 86 1013.9
20201029100705 44 62 0.0 1.0 0.00 0.12 0.00 86 1013.9
20201029100605 44 61 0.0 1.0 0.00 0.12 0.00 86 1013.9
20201029100510 44 62 0.0 1.0 0.00 0.12 0.00 86 1013.8
20201029100414 44 62 0.0 1.0 0.00 0.12 0.00 86 1013.8
20201029100305 44 60 0.0 1.0 0.00 0.12 0.00 86 1013.8
20201029100234 44 59 0.0 1.0 0.00 0.12 0.00 86 1013.8
20201029100128 44 57 0.0 1.0 0.00 0.12 0.00 86 1013.8
20201029100025 44 56 0.0 1.0 0.00 0.12 0.00 86 1013.8
20201029095905 44 56 0.0 1.0 0.00 0.12 0.00 86 1013.8
20201029095805 44 56 0.0 1.0 0.00 0.12 0.00 86 1013.8
20201029095705 44 56 0.0 1.0 0.00 0.12 0.00 86 1013.7
20201029095607 44 56 0.0 1.0 0.00 0.12 0.00 86 1013.7
20201029095506 44 56 0.0 1.0 0.00 0.12 0.00 86 1013.7